Time,TemperatureF,DewpointF,PressureIn,WindDirection,WindDirectionDegrees,WindSpeedMPH,WindSpeedGustMPH,Humidity,HourlyPrecipIn,Conditions,Clouds,dailyrainin,SoftwareType,DateUTC
2013-06-09 00:00:00,66.6,63.5,30.06,North,0,0.0,0.0,90,0.00,,,0.00,WUHU216HW,2013-06-09 04:00:00,
2013-06-09 00:01:00,66.6,63.5,30.06,North,0,0.0,0.0,90,0.00,,,0.00,WUHU216HW,2013-06-09 04:01:00,
2013-06-09 00:06:00,66.4,63.4,30.06,North,0,0.0,0.0,90,0.00,,,0.00,WUHU216HW,2013-06-09 04:06:00,
2013-06-09 00:07:00,66.4,63.4,30.06,North,0,0.0,0.0,90,0.00,,,0.00,WUHU216HW,2013-06-09 04:07:00,
2013-06-09 00:11:00,66.2,63.5,30.06,North,0,0.0,0.0,91,0.00,,,0.00,WUHU216HW,2013-06-09 04:11:00,
2013-06-09 00:12:00,66.2,63.5,30.06,North,0,0.0,0.0,91,0.00,,,0.00,WUHU216HW,2013-06-09 04:12:00,
2013-06-09 00:16:00,66.2,63.5,30.07,North,0,0.0,0.0,91,0.00,,,0.00,WUHU216HW,2013-06-09 04:16:00,
2013-06-09 00:17:00,66.2,63.5,30.07,North,0,0.0,0.0,91,0.00,,,0.00,WUHU216HW,2013-06-09 04:17:00,
2013-06-09 00:21:00,66.2,63.5,30.07,North,0,0.0,0.0,91,0.00,,,0.00,WUHU216HW,2013-06-09 04:21:00,
2013-06-09 00:22:00,66.2,63.5,30.07,North,0,0.0,0.0,91,0.00,,,0.00,WUHU216HW,2013-06-09 04:22:00,
2013-06-09 00:27:00,66.1,63.4,30.07,North,0,0.0,0.0,91,0.00,,,0.00,WUHU216HW,2013-06-09 04:27:00,
2013-06-09 00:28:00,66.1,63.4,30.07,North,0,0.0,0.0,91,0.00,,,0.00,WUHU216HW,2013-06-09 04:28:00,
2013-06-09 00:33:00,66.1,63.4,30.07,North,0,0.0,0.0,91,0.00,,,0.00,WUHU216HW,2013-06-09 04:33:00,
2013-06-09 00:38:00,65.9,63.2,30.07,North,0,0.0,0.0,91,0.00,,,0.00,WUHU216HW,2013-06-09 04:38:00,
2013-06-09 00:43:00,65.9,63.2,30.07,North,0,0.0,0.0,91,0.00,,,0.00,WUHU216HW,2013-06-09 04:43:00,
2013-06-09 00:44:00,65.9,63.2,30.07,North,0,0.0,0.0,91,0.00,,,0.00,WUHU216HW,2013-06-09 04:44:00,
2013-06-09 00:48:00,65.9,63.2,30.07,North,0,0.0,0.0,91,0.00,,,0.00,WUHU216HW,2013-06-09 04:48:00,
2013-06-09 00:49:00,65.9,63.2,30.07,North,0,0.0,0.0,91,0.00,,,0.00,WUHU216HW,2013-06-09 04:49:00,
2013-06-09 00:54:00,65.7,63.0,30.07,North,0,0.0,0.0,91,0.00,,,0.00,WUHU216HW,2013-06-09 04:54:00,
2013-06-09 00:55:00,65.7,62.7,30.07,North,0,0.0,0.0,90,0.00,,,0.00,WUHU216HW,2013-06-09 04:55:00,
2013-06-09 00:59:00,65.7,62.7,30.07,North,0,0.0,0.0,90,0.00,,,0.00,WUHU216HW,2013-06-09 04:59:00,
2013-06-09 01:00:00,65.7,62.7,30.07,North,0,0.0,0.0,90,0.00,,,0.00,WUHU216HW,2013-06-09 05:00:00,
2013-06-09 01:04:00,65.5,62.6,30.08,North,0,0.0,0.0,90,0.00,,,0.00,WUHU216HW,2013-06-09 05:04:00,
2013-06-09 01:05:00,65.5,62.6,30.08,North,0,0.0,0.0,90,0.00,,,0.00,WUHU216HW,2013-06-09 05:05:00,
2013-06-09 01:09:00,65.5,62.6,30.07,North,0,0.0,0.0,90,0.00,,,0.00,WUHU216HW,2013-06-09 05:09:00,
2013-06-09 01:10:00,65.5,62.6,30.08,North,0,0.0,0.0,90,0.00,,,0.00,WUHU216HW,2013-06-09 05:10:00,
2013-06-09 01:11:00,65.5,62.6,30.08,North,0,0.0,0.0,90,0.00,,,0.00,WUHU216HW,2013-06-09 05:11:00,
2013-06-09 01:14:00,65.5,62.6,30.08,North,0,0.0,0.0,90,0.00,,,0.00,WUHU216HW,2013-06-09 05:14:00,
2013-06-09 01:15:00,65.5,62.6,30.08,North,0,0.0,0.0,90,0.00,,,0.00,WUHU216HW,2013-06-09 05:15:00,
2013-06-09 01:16:00,65.3,62.4,30.08,North,0,0.0,0.0,90,0.00,,,0.00,WUHU216HW,2013-06-09 05:16:00,
2013-06-09 01:17:00,65.5,62.6,30.08,North,0,0.0,0.0,90,0.00,,,0.00,WUHU216HW,2013-06-09 05:17:00,
2013-06-09 01:20:00,65.3,62.4,30.08,North,0,0.0,0.0,90,0.00,,,0.00,WUHU216HW,2013-06-09 05:20:00,
2013-06-09 01:21:00,65.3,62.4,30.08,North,0,0.0,0.0,90,0.00,,,0.00,WUHU216HW,2013-06-09 05:21:00,
2013-06-09 01:22:00,65.3,62.4,30.08,North,0,0.0,0.0,90,0.00,,,0.00,WUHU216HW,2013-06-09 05:22:00,
2013-06-09 01:25:00,65.3,62.4,30.08,North,0,0.0,0.0,90,0.00,,,0.00,WUHU216HW,2013-06-09 05:25:00,
2013-06-09 01:26:00,65.3,62.4,30.08,North,0,0.0,0.0,90,0.00,,,0.00,WUHU216HW,2013-06-09 05:26:00,
2013-06-09 01:27:00,65.3,62.4,30.08,North,0,0.0,0.0,90,0.00,,,0.00,WUHU216HW,2013-06-09 05:27:00,
2013-06-09 01:30:00,65.3,62.4,30.08,North,0,0.0,0.0,90,0.00,,,0.00,WUHU216HW,2013-06-09 05:30:00,
2013-06-09 01:31:00,65.3,62.4,30.08,North,0,0.0,0.0,90,0.00,,,0.00,WUHU216HW,2013-06-09 05:31:00,
2013-06-09 01:32:00,65.3,62.4,30.08,North,0,0.0,0.0,90,0.00,,,0.00,WUHU216HW,2013-06-09 05:32:00,
2013-06-09 01:35:00,65.3,62.4,30.08,North,0,0.0,0.0,90,0.00,,,0.00,WUHU216HW,2013-06-09 05:35:00,
2013-06-09 01:36:00,65.2,62.2,30.08,North,0,0.0,0.0,90,0.00,,,0.00,WUHU216HW,2013-06-09 05:36:00,
2013-06-09 01:37:00,65.2,62.2,30.08,North,0,0.0,0.0,90,0.00,,,0.00,WUHU216HW,2013-06-09 05:37:00,
2013-06-09 01:38:00,65.2,62.2,30.08,North,0,0.0,0.0,90,0.00,,,0.00,WUHU216HW,2013-06-09 05:38:00,
2013-06-09 01:41:00,65.2,62.2,30.08,North,0,0.0,0.0,90,0.00,,,0.00,WUHU216HW,2013-06-09 05:41:00,
2013-06-09 01:42:00,65.2,62.2,30.08,North,0,0.0,0.0,90,0.00,,,0.00,WUHU216HW,2013-06-09 05:42:00,
2013-06-09 01:43:00,65.2,62.2,30.08,North,0,0.0,0.0,90,0.00,,,0.00,WUHU216HW,2013-06-09 05:43:00,
2013-06-09 01:46:00,65.2,62.2,30.08,North,0,0.0,0.0,90,0.00,,,0.00,WUHU216HW,2013-06-09 05:46:00,
2013-06-09 01:47:00,65.2,62.2,30.08,North,0,0.0,0.0,90,0.00,,,0.00,WUHU216HW,2013-06-09 05:47:00,
2013-06-09 01:48:00,65.2,62.2,30.08,North,0,0.0,0.0,90,0.00,,,0.00,WUHU216HW,2013-06-09 05:48:00,
2013-06-09 01:52:00,65.0,62.0,30.08,North,0,0.0,0.0,90,0.00,,,0.00,WUHU216HW,2013-06-09 05:52:00,
2013-06-09 01:53:00,65.0,62.0,30.08,North,0,0.0,0.0,90,0.00,,,0.00,WUHU216HW,2013-06-09 05:53:00,
2013-06-09 01:57:00,65.0,62.0,30.09,North,0,0.0,0.0,90,0.00,,,0.00,WUHU216HW,2013-06-09 05:57:00,
2013-06-09 01:58:00,65.0,62.0,30.08,North,0,0.0,0.0,90,0.00,,,0.00,WUHU216HW,2013-06-09 05:58:00,
2013-06-09 02:02:00,64.8,61.9,30.08,North,0,0.0,0.0,90,0.00,,,0.00,WUHU216HW,2013-06-09 06:02:00,
2013-06-09 02:03:00,64.8,61.9,30.08,North,0,0.0,0.0,90,0.00,,,0.00,WUHU216HW,2013-06-09 06:03:00,
2013-06-09 02:07:00,64.8,61.9,30.08,North,0,0.0,0.0,90,0.00,,,0.00,WUHU216HW,2013-06-09 06:07:00,
2013-06-09 02:08:00,64.8,61.9,30.08,North,0,0.0,0.0,90,0.00,,,0.00,WUHU216HW,2013-06-09 06:08:00,
2013-06-09 02:09:00,64.8,61.9,30.08,North,0,0.0,0.0,90,0.00,,,0.00,WUHU216HW,2013-06-09 06:09:00,
2013-06-09 02:12:00,64.6,61.8,30.09,North,0,0.0,0.0,90,0.00,,,0.00,WUHU216HW,2013-06-09 06:12:00,
2013-06-09 02:13:00,64.6,61.8,30.09,North,0,0.0,0.0,90,0.00,,,0.00,WUHU216HW,2013-06-09 06:13:00,
2013-06-09 02:14:00,64.6,61.8,30.09,North,0,0.0,0.0,90,0.00,,,0.00,WUHU216HW,2013-06-09 06:14:00,
2013-06-09 02:17:00,64.6,61.8,30.09,North,0,0.0,0.0,90,0.00,,,0.00,WUHU216HW,2013-06-09 06:17:00,
2013-06-09 02:18:00,64.6,61.8,30.09,North,0,0.0,0.0,90,0.00,,,0.00,WUHU216HW,2013-06-09 06:18:00,
2013-06-09 02:19:00,64.6,61.8,30.09,North,0,0.0,0.0,90,0.00,,,0.00,WUHU216HW,2013-06-09 06:19:00,
2013-06-09 02:23:00,64.6,61.8,30.09,North,0,0.0,0.0,90,0.00,,,0.00,WUHU216HW,2013-06-09 06:23:00,
2013-06-09 02:24:00,64.6,61.8,30.09,North,0,0.0,0.0,90,0.00,,,0.00,WUHU216HW,2013-06-09 06:24:00,
2013-06-09 02:25:00,64.6,61.8,30.09,North,0,0.0,0.0,90,0.00,,,0.00,WUHU216HW,2013-06-09 06:25:00,
2013-06-09 02:28:00,64.6,61.8,30.08,North,0,0.0,0.0,90,0.00,,,0.00,WUHU216HW,2013-06-09 06:28:00,
2013-06-09 02:29:00,64.4,61.6,30.09,North,0,0.0,0.0,90,0.00,,,0.00,WUHU216HW,2013-06-09 06:29:00,
2013-06-09 02:30:00,64.4,61.6,30.08,North,0,0.0,0.0,90,0.00,,,0.00,WUHU216HW,2013-06-09 06:30:00,
2013-06-09 02:33:00,64.4,61.6,30.08,North,0,0.0,0.0,90,0.00,,,0.00,WUHU216HW,2013-06-09 06:33:00,
2013-06-09 02:34:00,64.4,61.6,30.08,North,0,0.0,0.0,90,0.00,,,0.00,WUHU216HW,2013-06-09 06:34:00,
2013-06-09 02:35:00,64.4,61.6,30.08,North,0,0.0,0.0,90,0.00,,,0.00,WUHU216HW,2013-06-09 06:35:00,
2013-06-09 02:38:00,64.4,61.6,30.08,North,0,0.0,0.0,90,0.00,,,0.00,WUHU216HW,2013-06-09 06:38:00,
2013-06-09 02:39:00,64.4,61.6,30.08,North,0,0.0,0.0,90,0.00,,,0.00,WUHU216HW,2013-06-09 06:39:00,
2013-06-09 02:40:00,64.4,61.6,30.08,North,0,0.0,0.0,90,0.00,,,0.00,WUHU216HW,2013-06-09 06:40:00,
2013-06-09 02:43:00,64.4,61.6,30.09,North,0,0.0,0.0,90,0.00,,,0.00,WUHU216HW,2013-06-09 06:43:00,
2013-06-09 02:44:00,64.4,61.6,30.09,North,0,0.0,0.0,90,0.00,,,0.00,WUHU216HW,2013-06-09 06:44:00,
2013-06-09 02:45:00,64.4,61.6,30.08,North,0,0.0,0.0,90,0.00,,,0.00,WUHU216HW,2013-06-09 06:45:00,
2013-06-09 02:46:00,64.4,61.6,30.08,North,0,0.0,0.0,90,0.00,,,0.00,WUHU216HW,2013-06-09 06:46:00,
2013-06-09 02:48:00,64.4,61.6,30.08,North,0,0.0,0.0,90,0.00,,,0.00,WUHU216HW,2013-06-09 06:48:00,
2013-06-09 02:49:00,64.4,61.6,30.08,North,0,0.0,0.0,90,0.00,,,0.00,WUHU216HW,2013-06-09 06:49:00,
2013-06-09 02:52:00,64.3,61.4,30.08,North,0,0.0,0.0,90,0.00,,,0.00,WUHU216HW,2013-06-09 06:52:00,
2013-06-09 02:53:00,64.3,61.4,30.08,North,0,0.0,0.0,90,0.00,,,0.00,WUHU216HW,2013-06-09 06:53:00,
2013-06-09 02:54:00,64.3,61.4,30.08,North,0,0.0,0.0,90,0.00,,,0.00,WUHU216HW,2013-06-09 06:54:00,
2013-06-09 02:57:00,64.3,61.4,30.09,North,0,0.0,0.0,90,0.00,,,0.00,WUHU216HW,2013-06-09 06:57:00,
2013-06-09 02:59:00,64.3,61.4,30.09,North,0,0.0,0.0,90,0.00,,,0.00,WUHU216HW,2013-06-09 06:59:00,
2013-06-09 03:02:00,64.1,61.2,30.09,North,0,0.0,0.0,90,0.00,,,0.00,WUHU216HW,2013-06-09 07:02:00,
2013-06-09 03:04:00,64.1,61.2,30.09,North,0,0.0,0.0,90,0.00,,,0.00,WUHU216HW,2013-06-09 07:04:00,
2013-06-09 03:05:00,64.1,61.2,30.09,North,0,0.0,0.0,90,0.00,,,0.00,WUHU216HW,2013-06-09 07:05:00,
2013-06-09 03:07:00,64.1,61.2,30.09,North,0,0.0,0.0,90,0.00,,,0.00,WUHU216HW,2013-06-09 07:07:00,
2013-06-09 03:09:00,63.9,61.0,30.09,North,0,0.0,0.0,90,0.00,,,0.00,WUHU216HW,2013-06-09 07:09:00,
2013-06-09 03:10:00,63.9,61.0,30.09,North,0,0.0,0.0,90,0.00,,,0.00,WUHU216HW,2013-06-09 07:10:00,
2013-06-09 03:12:00,63.9,61.0,30.09,North,0,0.0,0.0,90,0.00,,,0.00,WUHU216HW,2013-06-09 07:12:00,
2013-06-09 03:13:00,63.9,61.0,30.09,North,0,0.0,0.0,90,0.00,,,0.00,WUHU216HW,2013-06-09 07:13:00,
2013-06-09 03:14:00,63.9,61.0,30.09,North,0,0.0,0.0,90,0.00,,,0.00,WUHU216HW,2013-06-09 07:14:00,
2013-06-09 03:15:00,63.9,61.0,30.09,North,0,0.0,0.0,90,0.00,,,0.00,WUHU216HW,2013-06-09 07:15:00,
2013-06-09 03:16:00,63.9,61.0,30.09,North,0,0.0,0.0,90,0.00,,,0.00,WUHU216HW,2013-06-09 07:16:00,
2013-06-09 03:17:00,63.9,61.0,30.09,North,0,0.0,0.0,90,0.00,,,0.00,WUHU216HW,2013-06-09 07:17:00,
2013-06-09 03:18:00,63.7,60.8,30.09,North,0,0.0,0.0,90,0.00,,,0.00,WUHU216HW,2013-06-09 07:18:00,
2013-06-09 03:20:00,63.7,60.8,30.09,North,0,0.0,0.0,90,0.00,,,0.00,WUHU216HW,2013-06-09 07:20:00,
2013-06-09 03:21:00,63.7,60.8,30.09,North,0,0.0,0.0,90,0.00,,,0.00,WUHU216HW,2013-06-09 07:21:00,
2013-06-09 03:22:00,63.7,60.8,30.09,North,0,0.0,0.0,90,0.00,,,0.00,WUHU216HW,2013-06-09 07:22:00,
2013-06-09 03:23:00,63.7,60.8,30.09,North,0,0.0,0.0,90,0.00,,,0.00,WUHU216HW,2013-06-09 07:23:00,
2013-06-09 03:25:00,63.7,60.8,30.09,North,0,0.0,0.0,90,0.00,,,0.00,WUHU216HW,2013-06-09 07:25:00,
2013-06-09 03:26:00,63.7,60.8,30.09,North,0,0.0,0.0,90,0.00,,,0.00,WUHU216HW,2013-06-09 07:26:00,
2013-06-09 03:27:00,63.7,60.8,30.09,North,0,0.0,0.0,90,0.00,,,0.00,WUHU216HW,2013-06-09 07:27:00,
2013-06-09 03:28:00,63.7,60.8,30.09,North,0,0.0,0.0,90,0.00,,,0.00,WUHU216HW,2013-06-09 07:28:00,
2013-06-09 03:30:00,63.7,60.8,30.09,North,0,0.0,0.0,90,0.00,,,0.00,WUHU216HW,2013-06-09 07:30:00,
2013-06-09 03:31:00,63.5,60.7,30.09,North,0,0.0,0.0,90,0.00,,,0.00,WUHU216HW,2013-06-09 07:31:00,
2013-06-09 03:33:00,63.5,60.7,30.09,North,0,0.0,0.0,90,0.00,,,0.00,WUHU216HW,2013-06-09 07:33:00,
2013-06-09 03:34:00,63.5,60.7,30.09,North,0,0.0,0.0,90,0.00,,,0.00,WUHU216HW,2013-06-09 07:34:00,
2013-06-09 03:35:00,63.5,60.7,30.09,North,0,0.0,0.0,90,0.00,,,0.00,WUHU216HW,2013-06-09 07:35:00,
2013-06-09 03:36:00,63.5,60.7,30.09,North,0,0.0,0.0,90,0.00,,,0.00,WUHU216HW,2013-06-09 07:36:00,
2013-06-09 03:38:00,63.4,60.5,30.09,North,0,0.0,0.0,90,0.00,,,0.00,WUHU216HW,2013-06-09 07:38:00,
2013-06-09 03:39:00,63.4,60.5,30.09,North,0,0.0,0.0,90,0.00,,,0.00,WUHU216HW,2013-06-09 07:39:00,
2013-06-09 03:41:00,63.4,60.5,30.09,North,0,0.0,0.0,90,0.00,,,0.00,WUHU216HW,2013-06-09 07:41:00,
2013-06-09 03:43:00,63.4,60.5,30.09,North,0,0.0,0.0,90,0.00,,,0.00,WUHU216HW,2013-06-09 07:43:00,
2013-06-09 03:44:00,63.4,60.5,30.09,North,0,0.0,0.0,90,0.00,,,0.00,WUHU216HW,2013-06-09 07:44:00,
2013-06-09 03:46:00,63.4,60.5,30.09,North,0,0.0,0.0,90,0.00,,,0.00,WUHU216HW,2013-06-09 07:46:00,
2013-06-09 03:47:00,63.4,60.5,30.09,North,0,0.0,0.0,90,0.00,,,0.00,WUHU216HW,2013-06-09 07:47:00,
2013-06-09 03:48:00,63.4,60.5,30.09,North,0,0.0,0.0,90,0.00,,,0.00,WUHU216HW,2013-06-09 07:48:00,
2013-06-09 03:49:00,63.4,60.5,30.09,North,0,0.0,0.0,90,0.00,,,0.00,WUHU216HW,2013-06-09 07:49:00,
2013-06-09 03:51:00,63.4,60.5,30.09,North,0,0.0,0.0,90,0.00,,,0.00,WUHU216HW,2013-06-09 07:51:00,
2013-06-09 03:52:00,63.4,60.5,30.09,North,0,0.0,0.0,90,0.00,,,0.00,WUHU216HW,2013-06-09 07:52:00,
2013-06-09 03:53:00,63.4,60.5,30.09,North,0,0.0,0.0,90,0.00,,,0.00,WUHU216HW,2013-06-09 07:53:00,
2013-06-09 03:54:00,63.4,60.5,30.09,North,0,0.0,0.0,90,0.00,,,0.00,WUHU216HW,2013-06-09 07:54:00,
2013-06-09 03:56:00,63.5,60.9,30.09,North,0,0.0,0.0,91,0.00,,,0.00,WUHU216HW,2013-06-09 07:56:00,
2013-06-09 03:57:00,63.5,60.7,30.09,North,0,0.0,0.0,90,0.00,,,0.00,WUHU216HW,2013-06-09 07:57:00,
2013-06-09 03:58:00,63.5,60.7,30.09,North,0,0.0,0.0,90,0.00,,,0.00,WUHU216HW,2013-06-09 07:58:00,
2013-06-09 03:59:00,63.5,60.7,30.09,North,0,0.0,0.0,90,0.00,,,0.00,WUHU216HW,2013-06-09 07:59:00,
2013-06-09 04:02:00,63.5,60.7,30.09,North,0,0.0,0.0,90,0.00,,,0.00,WUHU216HW,2013-06-09 08:02:00,
2013-06-09 04:04:00,63.5,60.7,30.10,North,0,0.0,0.0,90,0.00,,,0.00,WUHU216HW,2013-06-09 08:04:00,
2013-06-09 04:07:00,63.4,60.5,30.10,North,0,0.0,0.0,90,0.00,,,0.00,WUHU216HW,2013-06-09 08:07:00,
2013-06-09 04:09:00,63.4,60.5,30.10,North,0,0.0,0.0,90,0.00,,,0.00,WUHU216HW,2013-06-09 08:09:00,
2013-06-09 04:12:00,63.4,60.5,30.09,North,0,0.0,0.0,90,0.00,,,0.00,WUHU216HW,2013-06-09 08:12:00,
2013-06-09 04:14:00,63.4,60.5,30.09,North,0,0.0,0.0,90,0.00,,,0.00,WUHU216HW,2013-06-09 08:14:00,
2013-06-09 04:17:00,63.5,60.7,30.09,North,0,0.0,0.0,90,0.00,,,0.00,WUHU216HW,2013-06-09 08:17:00,
2013-06-09 04:18:00,63.5,60.7,30.09,North,0,0.0,0.0,90,0.00,,,0.00,WUHU216HW,2013-06-09 08:18:00,
2013-06-09 04:19:00,63.5,60.7,30.09,North,0,0.0,0.0,90,0.00,,,0.00,WUHU216HW,2013-06-09 08:19:00,
2013-06-09 04:20:00,63.5,60.7,30.09,North,0,0.0,0.0,90,0.00,,,0.00,WUHU216HW,2013-06-09 08:20:00,
2013-06-09 04:22:00,63.7,60.8,30.09,North,0,0.0,0.0,90,0.00,,,0.00,WUHU216HW,2013-06-09 08:22:00,
2013-06-09 04:23:00,63.7,60.8,30.09,North,0,0.0,0.0,90,0.00,,,0.00,WUHU216HW,2013-06-09 08:23:00,
2013-06-09 04:24:00,63.7,60.8,30.09,North,0,0.0,0.0,90,0.00,,,0.00,WUHU216HW,2013-06-09 08:24:00,
2013-06-09 04:25:00,63.7,60.8,30.09,North,0,0.0,0.0,90,0.00,,,0.00,WUHU216HW,2013-06-09 08:25:00,
2013-06-09 04:27:00,63.7,60.8,30.09,North,0,0.0,0.0,90,0.00,,,0.00,WUHU216HW,2013-06-09 08:27:00,
2013-06-09 04:29:00,63.7,60.8,30.09,North,0,0.0,0.0,90,0.00,,,0.00,WUHU216HW,2013-06-09 08:29:00,
2013-06-09 04:30:00,63.7,60.8,30.09,North,0,0.0,0.0,90,0.00,,,0.00,WUHU216HW,2013-06-09 08:30:00,
2013-06-09 04:31:00,63.7,60.8,30.09,North,0,0.0,0.0,90,0.00,,,0.00,WUHU216HW,2013-06-09 08:31:00,
2013-06-09 04:32:00,63.7,60.5,30.09,North,0,0.0,0.0,89,0.00,,,0.00,WUHU216HW,2013-06-09 08:32:00,
2013-06-09 04:33:00,63.7,60.5,30.09,North,0,0.0,0.0,89,0.00,,,0.00,WUHU216HW,2013-06-09 08:33:00,
2013-06-09 04:34:00,63.7,60.5,30.09,North,0,0.0,0.0,89,0.00,,,0.00,WUHU216HW,2013-06-09 08:34:00,
2013-06-09 04:36:00,63.7,60.5,30.09,North,0,0.0,0.0,89,0.00,,,0.00,WUHU216HW,2013-06-09 08:36:00,
2013-06-09 04:37:00,63.7,60.5,30.09,North,0,0.0,0.0,89,0.00,,,0.00,WUHU216HW,2013-06-09 08:37:00,
2013-06-09 04:38:00,63.7,60.5,30.09,North,0,0.0,0.0,89,0.00,,,0.00,WUHU216HW,2013-06-09 08:38:00,
2013-06-09 04:40:00,63.9,60.7,30.09,North,0,0.0,0.0,89,0.00,,,0.00,WUHU216HW,2013-06-09 08:40:00,
2013-06-09 04:41:00,63.9,60.7,30.10,North,0,0.0,0.0,89,0.00,,,0.00,WUHU216HW,2013-06-09 08:41:00,
2013-06-09 04:43:00,63.9,60.7,30.09,North,0,0.0,0.0,89,0.00,,,0.00,WUHU216HW,2013-06-09 08:43:00,
2013-06-09 04:45:00,63.9,60.7,30.10,North,0,0.0,0.0,89,0.00,,,0.00,WUHU216HW,2013-06-09 08:45:00,
2013-06-09 04:47:00,63.9,60.7,30.10,North,0,0.0,0.0,89,0.00,,,0.00,WUHU216HW,2013-06-09 08:47:00,
2013-06-09 04:48:00,64.1,60.8,30.10,North,0,0.0,0.0,89,0.00,,,0.00,WUHU216HW,2013-06-09 08:48:00,
2013-06-09 04:50:00,64.1,60.8,30.10,North,0,0.0,0.0,89,0.00,,,0.00,WUHU216HW,2013-06-09 08:50:00,
2013-06-09 04:52:00,64.1,60.8,30.10,North,0,0.0,0.0,89,0.00,,,0.00,WUHU216HW,2013-06-09 08:52:00,
2013-06-09 04:53:00,64.1,60.8,30.10,North,0,0.0,0.0,89,0.00,,,0.00,WUHU216HW,2013-06-09 08:53:00,
2013-06-09 04:55:00,64.1,60.8,30.11,North,0,0.0,0.0,89,0.00,,,0.00,WUHU216HW,2013-06-09 08:55:00,
2013-06-09 04:57:00,63.9,60.7,30.11,North,0,0.0,0.0,89,0.00,,,0.00,WUHU216HW,2013-06-09 08:57:00,
2013-06-09 04:58:00,63.9,60.3,30.11,North,0,0.0,0.0,88,0.00,,,0.00,WUHU216HW,2013-06-09 08:58:00,
2013-06-09 04:59:00,63.9,60.3,30.11,North,0,0.0,0.0,88,0.00,,,0.00,WUHU216HW,2013-06-09 08:59:00,
2013-06-09 05:01:00,63.9,60.3,30.11,North,0,0.0,0.0,88,0.00,,,0.00,WUHU216HW,2013-06-09 09:01:00,
2013-06-09 05:03:00,63.9,60.3,30.11,North,0,0.0,0.0,88,0.00,,,0.00,WUHU216HW,2013-06-09 09:03:00,
2013-06-09 05:04:00,63.9,60.3,30.11,North,0,0.0,0.0,88,0.00,,,0.00,WUHU216HW,2013-06-09 09:04:00,
2013-06-09 05:06:00,63.7,60.1,30.12,North,0,0.0,0.0,88,0.00,,,0.00,WUHU216HW,2013-06-09 09:06:00,
2013-06-09 05:08:00,63.7,60.1,30.11,North,0,0.0,0.0,88,0.00,,,0.00,WUHU216HW,2013-06-09 09:08:00,
2013-06-09 05:09:00,63.7,60.1,30.12,North,0,0.0,0.0,88,0.00,,,0.00,WUHU216HW,2013-06-09 09:09:00,
2013-06-09 05:12:00,63.7,60.1,30.12,North,0,0.0,0.0,88,0.00,,,0.00,WUHU216HW,2013-06-09 09:12:00,
2013-06-09 05:13:00,63.7,60.1,30.12,North,0,0.0,0.0,88,0.00,,,0.00,WUHU216HW,2013-06-09 09:13:00,
2013-06-09 05:14:00,63.7,60.1,30.12,North,0,0.0,0.0,88,0.00,,,0.00,WUHU216HW,2013-06-09 09:14:00,
2013-06-09 05:15:00,63.7,60.1,30.12,North,0,0.0,0.0,88,0.00,,,0.00,WUHU216HW,2013-06-09 09:15:00,
2013-06-09 05:17:00,63.7,60.1,30.12,North,0,0.0,0.0,88,0.00,,,0.00,WUHU216HW,2013-06-09 09:17:00,
2013-06-09 05:18:00,63.7,60.1,30.12,North,0,0.0,0.0,88,0.00,,,0.00,WUHU216HW,2013-06-09 09:18:00,
2013-06-09 05:19:00,63.7,60.1,30.12,North,0,0.0,0.0,88,0.00,,,0.00,WUHU216HW,2013-06-09 09:19:00,
2013-06-09 05:20:00,63.7,60.1,30.12,North,0,0.0,0.0,88,0.00,,,0.00,WUHU216HW,2013-06-09 09:20:00,
2013-06-09 05:22:00,63.7,60.1,30.12,North,0,0.0,0.0,88,0.00,,,0.00,WUHU216HW,2013-06-09 09:22:00,
2013-06-09 05:23:00,63.5,59.9,30.12,North,0,0.0,0.0,88,0.00,,,0.00,WUHU216HW,2013-06-09 09:23:00,
2013-06-09 05:25:00,63.7,60.1,30.12,North,0,0.0,0.0,88,0.00,,,0.00,WUHU216HW,2013-06-09 09:25:00,
2013-06-09 05:27:00,63.7,60.1,30.12,North,0,0.0,0.0,88,0.00,,,0.00,WUHU216HW,2013-06-09 09:27:00,
2013-06-09 05:28:00,63.7,60.1,30.12,North,0,0.0,0.0,88,0.00,,,0.00,WUHU216HW,2013-06-09 09:28:00,
2013-06-09 05:29:00,63.7,60.1,30.12,North,0,0.0,0.0,88,0.00,,,0.00,WUHU216HW,2013-06-09 09:29:00,
2013-06-09 05:30:00,63.7,60.1,30.12,North,0,0.0,0.0,88,0.00,,,0.00,WUHU216HW,2013-06-09 09:30:00,
2013-06-09 05:32:00,63.5,59.9,30.12,North,0,0.0,0.0,88,0.00,,,0.00,WUHU216HW,2013-06-09 09:32:00,
2013-06-09 05:34:00,63.5,59.9,30.12,North,0,0.0,0.0,88,0.00,,,0.00,WUHU216HW,2013-06-09 09:34:00,
2013-06-09 05:35:00,63.7,60.1,30.12,North,0,0.0,0.0,88,0.00,,,0.00,WUHU216HW,2013-06-09 09:35:00,
2013-06-09 05:37:00,63.7,60.1,30.12,North,0,0.0,0.0,88,0.00,,,0.00,WUHU216HW,2013-06-09 09:37:00,
2013-06-09 05:39:00,63.7,60.1,30.12,North,0,0.0,0.0,88,0.00,,,0.00,WUHU216HW,2013-06-09 09:39:00,
2013-06-09 05:40:00,63.7,60.1,30.12,North,0,0.0,0.0,88,0.00,,,0.00,WUHU216HW,2013-06-09 09:40:00,
2013-06-09 05:41:00,63.7,60.1,30.12,North,0,0.0,0.0,88,0.00,,,0.00,WUHU216HW,2013-06-09 09:41:00,
2013-06-09 05:43:00,63.7,60.1,30.12,North,0,0.0,0.0,88,0.00,,,0.00,WUHU216HW,2013-06-09 09:43:00,
2013-06-09 05:44:00,63.7,60.1,30.12,North,0,0.0,0.0,88,0.00,,,0.00,WUHU216HW,2013-06-09 09:44:00,
2013-06-09 05:45:00,63.7,60.1,30.12,North,0,0.0,0.0,88,0.00,,,0.00,WUHU216HW,2013-06-09 09:45:00,
2013-06-09 05:46:00,63.7,60.1,30.12,North,0,0.0,0.0,88,0.00,,,0.00,WUHU216HW,2013-06-09 09:46:00,
2013-06-09 05:48:00,63.7,60.1,30.13,North,0,0.0,0.0,88,0.00,,,0.00,WUHU216HW,2013-06-09 09:48:00,
2013-06-09 05:49:00,63.9,60.3,30.13,North,0,0.0,0.0,88,0.00,,,0.00,WUHU216HW,2013-06-09 09:49:00,
2013-06-09 05:50:00,63.9,60.3,30.13,North,0,0.0,0.0,88,0.00,,,0.00,WUHU216HW,2013-06-09 09:50:00,
2013-06-09 05:51:00,63.9,60.3,30.13,North,0,0.0,0.0,88,0.00,,,0.00,WUHU216HW,2013-06-09 09:51:00,
2013-06-09 05:53:00,63.9,60.3,30.13,North,0,0.0,0.0,88,0.00,,,0.00,WUHU216HW,2013-06-09 09:53:00,
2013-06-09 05:54:00,63.9,60.3,30.13,North,0,0.0,0.0,88,0.00,,,0.00,WUHU216HW,2013-06-09 09:54:00,
2013-06-09 05:55:00,63.9,60.3,30.13,North,0,0.0,0.0,88,0.00,,,0.00,WUHU216HW,2013-06-09 09:55:00,
2013-06-09 05:56:00,63.9,60.3,30.13,North,0,0.0,0.0,88,0.00,,,0.00,WUHU216HW,2013-06-09 09:56:00,
2013-06-09 05:57:00,63.9,60.3,30.13,North,0,0.0,0.0,88,0.00,,,0.00,WUHU216HW,2013-06-09 09:57:00,
2013-06-09 05:58:00,64.1,60.2,30.13,North,0,0.0,0.0,87,0.00,,,0.00,WUHU216HW,2013-06-09 09:58:00,
2013-06-09 05:59:00,64.1,60.2,30.13,North,0,0.0,0.0,87,0.00,,,0.00,WUHU216HW,2013-06-09 09:59:00,
2013-06-09 06:00:00,64.1,60.2,30.13,North,0,0.0,0.0,87,0.00,,,0.00,WUHU216HW,2013-06-09 10:00:00,
2013-06-09 06:01:00,64.1,60.2,30.13,North,0,0.0,0.0,87,0.00,,,0.00,WUHU216HW,2013-06-09 10:01:00,
2013-06-09 06:02:00,64.1,60.2,30.13,North,0,0.0,0.0,87,0.00,,,0.00,WUHU216HW,2013-06-09 10:02:00,
2013-06-09 06:03:00,64.3,60.4,30.13,North,0,0.0,0.0,87,0.00,,,0.00,WUHU216HW,2013-06-09 10:03:00,
2013-06-09 06:04:00,64.3,60.4,30.13,North,0,0.0,0.0,87,0.00,,,0.00,WUHU216HW,2013-06-09 10:04:00,
2013-06-09 06:05:00,64.3,60.4,30.13,North,0,0.0,0.0,87,0.00,,,0.00,WUHU216HW,2013-06-09 10:05:00,
2013-06-09 06:06:00,64.3,60.4,30.13,North,0,0.0,0.0,87,0.00,,,0.00,WUHU216HW,2013-06-09 10:06:00,
2013-06-09 06:07:00,64.3,60.4,30.13,North,0,0.0,0.0,87,0.00,,,0.00,WUHU216HW,2013-06-09 10:07:00,
2013-06-09 06:09:00,64.4,60.6,30.14,North,0,0.0,0.0,87,0.00,,,0.00,WUHU216HW,2013-06-09 10:09:00,
2013-06-09 06:10:00,64.4,60.6,30.14,North,0,0.0,0.0,87,0.00,,,0.00,WUHU216HW,2013-06-09 10:10:00,
2013-06-09 06:11:00,64.4,60.6,30.14,North,0,0.0,0.0,87,0.00,,,0.00,WUHU216HW,2013-06-09 10:11:00,
2013-06-09 06:12:00,64.4,60.6,30.14,North,0,0.0,0.0,87,0.00,,,0.00,WUHU216HW,2013-06-09 10:12:00,
2013-06-09 06:14:00,64.4,60.6,30.14,North,0,0.0,0.0,87,0.00,,,0.00,WUHU216HW,2013-06-09 10:14:00,
2013-06-09 06:16:00,64.4,60.6,30.14,North,0,0.0,0.0,87,0.00,,,0.00,WUHU216HW,2013-06-09 10:16:00,
2013-06-09 06:17:00,64.4,60.6,30.14,North,0,0.0,0.0,87,0.00,,,0.00,WUHU216HW,2013-06-09 10:17:00,
2013-06-09 06:19:00,64.6,60.7,30.14,North,0,0.0,0.0,87,0.00,,,0.00,WUHU216HW,2013-06-09 10:19:00,
2013-06-09 06:22:00,64.4,60.6,30.14,North,0,0.0,0.0,87,0.00,,,0.00,WUHU216HW,2013-06-09 10:22:00,
2013-06-09 06:24:00,64.6,60.7,30.14,North,0,0.0,0.0,87,0.00,,,0.00,WUHU216HW,2013-06-09 10:24:00,
2013-06-09 06:25:00,64.6,60.7,30.14,North,0,0.0,0.0,87,0.00,,,0.00,WUHU216HW,2013-06-09 10:25:00,
2013-06-09 06:27:00,64.6,60.7,30.14,North,0,0.0,0.0,87,0.00,,,0.00,WUHU216HW,2013-06-09 10:27:00,
2013-06-09 06:29:00,64.6,60.7,30.14,North,0,0.0,0.0,87,0.00,,,0.00,WUHU216HW,2013-06-09 10:29:00,
2013-06-09 06:30:00,64.8,60.8,30.14,North,0,0.0,0.0,87,0.00,,,0.00,WUHU216HW,2013-06-09 10:30:00,
2013-06-09 06:32:00,64.8,60.8,30.14,North,0,0.0,0.0,87,0.00,,,0.00,WUHU216HW,2013-06-09 10:32:00,
2013-06-09 06:35:00,64.8,60.8,30.14,North,0,0.0,0.0,87,0.00,,,0.00,WUHU216HW,2013-06-09 10:35:00,
2013-06-09 06:37:00,64.8,60.8,30.14,North,0,0.0,0.0,87,0.00,,,0.00,WUHU216HW,2013-06-09 10:37:00,
2013-06-09 06:38:00,64.8,60.8,30.14,North,0,0.0,0.0,87,0.00,,,0.00,WUHU216HW,2013-06-09 10:38:00,
2013-06-09 06:40:00,65.2,61.6,30.14,North,0,0.0,0.0,88,0.00,,,0.00,WUHU216HW,2013-06-09 10:40:00,
2013-06-09 06:42:00,65.3,61.8,30.14,North,0,0.0,0.0,88,0.00,,,0.00,WUHU216HW,2013-06-09 10:42:00,
2013-06-09 06:43:00,65.3,61.8,30.14,North,0,0.0,0.0,88,0.00,,,0.00,WUHU216HW,2013-06-09 10:43:00,
2013-06-09 06:45:00,65.7,61.8,30.14,North,0,0.0,0.0,87,0.00,,,0.00,WUHU216HW,2013-06-09 10:45:00,
2013-06-09 06:47:00,65.7,61.8,30.14,North,0,0.0,0.0,87,0.00,,,0.00,WUHU216HW,2013-06-09 10:47:00,
2013-06-09 06:48:00,65.7,61.8,30.14,North,0,0.0,0.0,87,0.00,,,0.00,WUHU216HW,2013-06-09 10:48:00,
2013-06-09 06:50:00,66.6,62.6,30.15,North,0,0.0,0.0,87,0.00,,,0.00,WUHU216HW,2013-06-09 10:50:00,
2013-06-09 06:52:00,67.0,62.9,30.15,North,0,0.0,0.0,87,0.00,,,0.00,WUHU216HW,2013-06-09 10:52:00,
2013-06-09 06:53:00,67.0,62.9,30.15,North,0,0.0,0.0,87,0.00,,,0.00,WUHU216HW,2013-06-09 10:53:00,
2013-06-09 06:54:00,67.0,62.9,30.15,North,0,0.0,0.0,87,0.00,,,0.00,WUHU216HW,2013-06-09 10:54:00,
2013-06-09 06:55:00,67.0,62.9,30.15,North,0,0.0,0.0,87,0.00,,,0.00,WUHU216HW,2013-06-09 10:55:00,
2013-06-09 06:57:00,67.7,63.4,30.15,North,0,0.0,0.0,86,0.00,,,0.00,WUHU216HW,2013-06-09 10:57:00,
2013-06-09 06:58:00,67.7,63.4,30.15,North,0,0.0,0.0,86,0.00,,,0.00,WUHU216HW,2013-06-09 10:58:00,
2013-06-09 06:59:00,67.7,63.0,30.15,North,0,0.0,0.0,85,0.00,,,0.00,WUHU216HW,2013-06-09 10:59:00,
2013-06-09 07:00:00,67.7,63.0,30.15,North,0,0.0,0.0,85,0.00,,,0.00,WUHU216HW,2013-06-09 11:00:00,
2013-06-09 07:01:00,67.9,63.2,30.15,North,0,0.0,0.0,85,0.00,,,0.00,WUHU216HW,2013-06-09 11:01:00,
2013-06-09 07:03:00,68.0,63.4,30.15,North,0,0.0,0.0,85,0.00,,,0.00,WUHU216HW,2013-06-09 11:03:00,
2013-06-09 07:04:00,68.0,63.4,30.15,North,0,0.0,0.0,85,0.00,,,0.00,WUHU216HW,2013-06-09 11:04:00,
2013-06-09 07:06:00,68.4,63.7,30.15,North,0,0.0,0.0,85,0.00,,,0.00,WUHU216HW,2013-06-09 11:06:00,
2013-06-09 07:08:00,68.8,63.7,30.15,North,0,0.0,0.0,84,0.00,,,0.00,WUHU216HW,2013-06-09 11:08:00,
2013-06-09 07:09:00,68.9,63.9,30.15,North,0,0.0,0.0,84,0.00,,,0.00,WUHU216HW,2013-06-09 11:09:00,
2013-06-09 07:11:00,69.1,63.7,30.15,North,0,0.0,0.0,83,0.00,,,0.00,WUHU216HW,2013-06-09 11:11:00,
2013-06-09 07:13:00,69.5,64.1,30.16,North,0,0.0,0.0,83,0.00,,,0.00,WUHU216HW,2013-06-09 11:13:00,
2013-06-09 07:14:00,69.5,64.1,30.16,North,0,0.0,0.0,83,0.00,,,0.00,WUHU216HW,2013-06-09 11:14:00,
2013-06-09 07:16:00,70.0,64.3,30.16,North,0,0.0,0.0,82,0.00,,,0.00,WUHU216HW,2013-06-09 11:16:00,
2013-06-09 07:18:00,70.6,64.8,30.16,North,0,0.0,0.0,82,0.00,,,0.00,WUHU216HW,2013-06-09 11:18:00,
2013-06-09 07:19:00,70.6,64.8,30.16,North,0,0.0,0.0,82,0.00,,,0.00,WUHU216HW,2013-06-09 11:19:00,
2013-06-09 07:21:00,70.6,64.8,30.16,North,0,0.0,0.0,82,0.00,,,0.00,WUHU216HW,2013-06-09 11:21:00,
2013-06-09 07:22:00,70.6,64.8,30.16,North,0,0.0,0.0,82,0.00,,,0.00,WUHU216HW,2013-06-09 11:22:00,
2013-06-09 07:24:00,71.6,65.5,30.16,North,0,0.0,0.0,81,0.00,,,0.00,WUHU216HW,2013-06-09 11:24:00,
2013-06-09 07:26:00,71.6,65.5,30.16,North,0,0.0,0.0,81,0.00,,,0.00,WUHU216HW,2013-06-09 11:26:00,
2013-06-09 07:27:00,71.6,65.5,30.16,North,0,0.0,0.0,81,0.00,,,0.00,WUHU216HW,2013-06-09 11:27:00,
2013-06-09 07:29:00,72.9,65.7,30.17,North,0,0.0,0.0,78,0.00,,,0.00,WUHU216HW,2013-06-09 11:29:00,
2013-06-09 07:30:00,73.1,66.3,30.17,North,0,0.0,0.0,79,0.00,,,0.00,WUHU216HW,2013-06-09 11:30:00,
2013-06-09 07:31:00,73.1,66.3,30.17,North,0,0.0,0.0,79,0.00,,,0.00,WUHU216HW,2013-06-09 11:31:00,
2013-06-09 07:32:00,73.1,66.3,30.17,North,0,0.0,0.0,79,0.00,,,0.00,WUHU216HW,2013-06-09 11:32:00,
2013-06-09 07:34:00,73.1,64.7,30.17,North,0,0.0,0.0,75,0.00,,,0.00,WUHU216HW,2013-06-09 11:34:00,
2013-06-09 07:35:00,73.1,64.4,30.17,North,0,0.0,0.0,74,0.00,,,0.00,WUHU216HW,2013-06-09 11:35:00,
2013-06-09 07:37:00,73.1,65.1,30.17,North,0,0.0,0.0,76,0.00,,,0.00,WUHU216HW,2013-06-09 11:37:00,
2013-06-09 07:38:00,73.1,65.1,30.16,North,0,0.0,0.0,76,0.00,,,0.00,WUHU216HW,2013-06-09 11:38:00,
2013-06-09 07:39:00,73.1,65.1,30.17,North,0,0.0,0.0,76,0.00,,,0.00,WUHU216HW,2013-06-09 11:39:00,
2013-06-09 07:40:00,73.1,65.1,30.17,North,0,0.0,0.0,76,0.00,,,0.00,WUHU216HW,2013-06-09 11:40:00,
2013-06-09 07:42:00,72.9,64.5,30.17,North,0,0.0,0.0,75,0.00,,,0.00,WUHU216HW,2013-06-09 11:42:00,
2013-06-09 07:43:00,72.9,64.5,30.17,North,0,0.0,0.0,75,0.00,,,0.00,WUHU216HW,2013-06-09 11:43:00,
2013-06-09 07:44:00,72.9,64.5,30.16,North,0,0.0,0.0,75,0.00,,,0.00,WUHU216HW,2013-06-09 11:44:00,
2013-06-09 07:45:00,72.7,64.4,30.17,North,0,0.0,0.0,75,0.00,,,0.00,WUHU216HW,2013-06-09 11:45:00,
2013-06-09 07:46:00,72.5,64.2,30.17,North,0,0.0,0.0,75,0.00,,,0.00,WUHU216HW,2013-06-09 11:46:00,
2013-06-09 07:47:00,72.5,64.2,30.17,North,0,0.0,0.0,75,0.00,,,0.00,WUHU216HW,2013-06-09 11:47:00,
2013-06-09 07:48:00,72.5,64.2,30.17,North,0,0.0,0.0,75,0.00,,,0.00,WUHU216HW,2013-06-09 11:48:00,
2013-06-09 07:49:00,72.5,64.2,30.17,North,0,0.0,0.0,75,0.00,,,0.00,WUHU216HW,2013-06-09 11:49:00,
2013-06-09 07:50:00,72.5,64.2,30.16,North,0,0.0,0.0,75,0.00,,,0.00,WUHU216HW,2013-06-09 11:50:00,
2013-06-09 07:52:00,72.2,63.5,30.17,North,0,0.0,0.0,74,0.00,,,0.00,WUHU216HW,2013-06-09 11:52:00,
2013-06-09 07:53:00,72.2,63.5,30.17,North,0,0.0,0.0,74,0.00,,,0.00,WUHU216HW,2013-06-09 11:53:00,
2013-06-09 07:55:00,72.2,63.5,30.17,North,0,0.0,0.0,74,0.00,,,0.00,WUHU216HW,2013-06-09 11:55:00,
2013-06-09 07:57:00,72.2,63.5,30.17,North,0,0.0,0.0,74,0.00,,,0.00,WUHU216HW,2013-06-09 11:57:00,
2013-06-09 07:58:00,72.2,63.5,30.17,North,0,0.0,0.0,74,0.00,,,0.00,WUHU216HW,2013-06-09 11:58:00,
2013-06-09 08:00:00,72.0,62.9,30.17,North,0,0.0,0.0,73,0.00,,,0.00,WUHU216HW,2013-06-09 12:00:00,
2013-06-09 08:02:00,71.6,61.4,30.17,North,0,0.0,0.0,70,0.00,,,0.00,WUHU216HW,2013-06-09 12:02:00,
2013-06-09 08:03:00,71.5,61.6,30.17,North,0,0.0,0.0,71,0.00,,,0.00,WUHU216HW,2013-06-09 12:03:00,
2013-06-09 08:05:00,70.9,61.4,30.17,North,0,0.0,0.0,72,0.00,,,0.00,WUHU216HW,2013-06-09 12:05:00,
2013-06-09 08:06:00,70.9,61.8,30.17,North,0,0.0,0.0,73,0.00,,,0.00,WUHU216HW,2013-06-09 12:06:00,
2013-06-09 08:07:00,70.7,61.7,30.17,North,0,0.0,0.0,73,0.00,,,0.00,WUHU216HW,2013-06-09 12:07:00,
2013-06-09 08:08:00,70.6,61.5,30.17,North,0,0.0,0.0,73,0.00,,,0.00,WUHU216HW,2013-06-09 12:08:00,
2013-06-09 08:11:00,70.6,61.5,30.17,North,0,0.0,0.0,73,0.00,,,0.00,WUHU216HW,2013-06-09 12:11:00,
2013-06-09 08:12:00,70.6,61.5,30.17,North,0,0.0,0.0,73,0.00,,,0.00,WUHU216HW,2013-06-09 12:12:00,
2013-06-09 08:13:00,70.2,61.5,30.17,North,0,0.0,0.0,74,0.00,,,0.00,WUHU216HW,2013-06-09 12:13:00,
2013-06-09 08:14:00,70.2,61.5,30.17,North,0,0.0,0.0,74,0.00,,,0.00,WUHU216HW,2013-06-09 12:14:00,
2013-06-09 08:17:00,69.8,61.1,30.17,North,0,0.0,0.0,74,0.00,,,0.00,WUHU216HW,2013-06-09 12:17:00,
2013-06-09 08:18:00,69.8,61.1,30.17,North,0,0.0,0.0,74,0.00,,,0.00,WUHU216HW,2013-06-09 12:18:00,
2013-06-09 08:19:00,69.8,61.1,30.17,North,0,0.0,0.0,74,0.00,,,0.00,WUHU216HW,2013-06-09 12:19:00,
2013-06-09 08:22:00,69.7,60.9,30.17,North,0,0.0,0.0,74,0.00,,,0.00,WUHU216HW,2013-06-09 12:22:00,
2013-06-09 08:23:00,69.7,60.9,30.17,North,0,0.0,0.0,74,0.00,,,0.00,WUHU216HW,2013-06-09 12:23:00,
2013-06-09 08:24:00,69.7,61.3,30.17,North,0,0.0,0.0,75,0.00,,,0.00,WUHU216HW,2013-06-09 12:24:00,
2013-06-09 08:27:00,69.5,61.1,30.18,North,0,0.0,0.0,75,0.00,,,0.00,WUHU216HW,2013-06-09 12:27:00,
2013-06-09 08:28:00,69.5,61.1,30.18,North,0,0.0,0.0,75,0.00,,,0.00,WUHU216HW,2013-06-09 12:28:00,
2013-06-09 08:29:00,69.5,61.1,30.17,North,0,0.0,0.0,75,0.00,,,0.00,WUHU216HW,2013-06-09 12:29:00,
2013-06-09 08:33:00,69.5,61.1,30.18,North,0,0.0,0.0,75,0.00,,,0.00,WUHU216HW,2013-06-09 12:33:00,
2013-06-09 08:34:00,69.5,61.1,30.18,North,0,0.0,0.0,75,0.00,,,0.00,WUHU216HW,2013-06-09 12:34:00,
2013-06-09 08:38:00,69.3,61.4,30.18,North,0,0.0,0.0,76,0.00,,,0.00,WUHU216HW,2013-06-09 12:38:00,
2013-06-09 08:39:00,69.3,61.4,30.18,North,0,0.0,0.0,76,0.00,,,0.00,WUHU216HW,2013-06-09 12:39:00,
2013-06-09 08:43:00,69.5,61.6,30.18,North,0,0.0,0.0,76,0.00,,,0.00,WUHU216HW,2013-06-09 12:43:00,
2013-06-09 08:44:00,69.5,61.6,30.18,North,0,0.0,0.0,76,0.00,,,0.00,WUHU216HW,2013-06-09 12:44:00,
2013-06-09 08:45:00,69.5,61.6,30.18,North,0,0.0,0.0,76,0.00,,,0.00,WUHU216HW,2013-06-09 12:45:00,
2013-06-09 08:48:00,69.5,61.9,30.18,North,0,0.0,0.0,77,0.00,,,0.00,WUHU216HW,2013-06-09 12:48:00,
2013-06-09 08:49:00,69.5,61.6,30.18,North,0,0.0,0.0,76,0.00,,,0.00,WUHU216HW,2013-06-09 12:49:00,
2013-06-09 08:50:00,69.5,61.6,30.18,North,0,0.0,0.0,76,0.00,,,0.00,WUHU216HW,2013-06-09 12:50:00,
2013-06-09 08:53:00,69.5,61.6,30.18,North,0,0.0,0.0,76,0.00,,,0.00,WUHU216HW,2013-06-09 12:53:00,
2013-06-09 08:54:00,69.5,61.6,30.18,North,0,0.0,0.0,76,0.00,,,0.00,WUHU216HW,2013-06-09 12:54:00,
2013-06-09 08:55:00,70.0,62.4,30.18,North,0,0.0,0.0,77,0.00,,,0.00,WUHU216HW,2013-06-09 12:55:00,
2013-06-09 08:56:00,70.0,62.4,30.18,North,0,0.0,0.0,77,0.00,,,0.00,WUHU216HW,2013-06-09 12:56:00,
2013-06-09 08:58:00,70.2,62.6,30.18,North,0,0.0,0.0,77,0.00,,,0.00,WUHU216HW,2013-06-09 12:58:00,
2013-06-09 08:59:00,70.2,62.6,30.18,North,0,0.0,0.0,77,0.00,,,0.00,WUHU216HW,2013-06-09 12:59:00,
2013-06-09 09:00:00,70.2,62.6,30.18,North,0,0.0,0.0,77,0.00,,,0.00,WUHU216HW,2013-06-09 13:00:00,
2013-06-09 09:01:00,70.2,62.6,30.18,North,0,0.0,0.0,77,0.00,,,0.00,WUHU216HW,2013-06-09 13:01:00,
2013-06-09 09:03:00,70.9,63.3,30.18,North,0,0.0,0.0,77,0.00,,,0.00,WUHU216HW,2013-06-09 13:03:00,
2013-06-09 09:05:00,70.9,63.3,30.18,North,0,0.0,0.0,77,0.00,,,0.00,WUHU216HW,2013-06-09 13:05:00,
2013-06-09 09:06:00,70.9,63.3,30.18,North,0,0.0,0.0,77,0.00,,,0.00,WUHU216HW,2013-06-09 13:06:00,
2013-06-09 09:07:00,70.9,63.3,30.18,North,0,0.0,0.0,77,0.00,,,0.00,WUHU216HW,2013-06-09 13:07:00,
2013-06-09 09:09:00,71.8,63.5,30.18,North,0,0.0,0.0,75,0.00,,,0.00,WUHU216HW,2013-06-09 13:09:00,
2013-06-09 09:10:00,71.8,63.5,30.18,North,0,0.0,0.0,75,0.00,,,0.00,WUHU216HW,2013-06-09 13:10:00,
2013-06-09 09:12:00,71.8,63.5,30.18,North,0,0.0,0.0,75,0.00,,,0.00,WUHU216HW,2013-06-09 13:12:00,
2013-06-09 09:14:00,71.8,63.5,30.17,North,0,0.0,0.0,75,0.00,,,0.00,WUHU216HW,2013-06-09 13:14:00,
2013-06-09 09:15:00,72.4,64.0,30.17,North,0,0.0,0.0,75,0.00,,,0.00,WUHU216HW,2013-06-09 13:15:00,
2013-06-09 09:17:00,72.4,64.0,30.17,North,0,0.0,0.0,75,0.00,,,0.00,WUHU216HW,2013-06-09 13:17:00,
2013-06-09 09:19:00,73.1,64.7,30.17,North,0,0.0,0.0,75,0.00,,,0.00,WUHU216HW,2013-06-09 13:19:00,
2013-06-09 09:20:00,73.3,64.9,30.17,North,0,0.0,0.0,75,0.00,,,0.00,WUHU216HW,2013-06-09 13:20:00,
2013-06-09 09:22:00,73.6,65.3,30.18,North,0,0.0,0.0,75,0.00,,,0.00,WUHU216HW,2013-06-09 13:22:00,
2013-06-09 09:23:00,73.6,65.3,30.18,North,0,0.0,0.0,75,0.00,,,0.00,WUHU216HW,2013-06-09 13:23:00,
2013-06-09 09:24:00,73.8,64.6,30.17,North,0,0.0,0.0,73,0.00,,,0.00,WUHU216HW,2013-06-09 13:24:00,
2013-06-09 09:25:00,73.8,64.6,30.17,North,0,0.0,0.0,73,0.00,,,0.00,WUHU216HW,2013-06-09 13:25:00,
2013-06-09 09:27:00,74.2,65.0,30.17,North,0,0.0,0.0,73,0.00,,,0.00,WUHU216HW,2013-06-09 13:27:00,
2013-06-09 09:28:00,74.2,65.0,30.17,North,0,0.0,0.0,73,0.00,,,0.00,WUHU216HW,2013-06-09 13:28:00,
2013-06-09 09:29:00,74.2,65.0,30.17,North,0,0.0,0.0,73,0.00,,,0.00,WUHU216HW,2013-06-09 13:29:00,
2013-06-09 09:30:00,74.2,65.0,30.17,North,0,0.0,0.0,73,0.00,,,0.00,WUHU216HW,2013-06-09 13:30:00,
2013-06-09 09:33:00,75.1,65.4,30.17,North,0,0.0,0.0,72,0.00,,,0.00,WUHU216HW,2013-06-09 13:33:00,
2013-06-09 09:34:00,75.1,65.4,30.17,North,0,0.0,0.0,72,0.00,,,0.00,WUHU216HW,2013-06-09 13:34:00,
2013-06-09 09:36:00,75.1,65.4,30.17,North,0,0.0,0.0,72,0.00,,,0.00,WUHU216HW,2013-06-09 13:36:00,
2013-06-09 09:38:00,75.8,66.2,30.17,North,0,0.0,0.0,72,0.00,,,0.00,WUHU216HW,2013-06-09 13:38:00,
2013-06-09 09:39:00,75.8,66.2,30.17,North,0,0.0,0.0,72,0.00,,,0.00,WUHU216HW,2013-06-09 13:39:00,
2013-06-09 09:41:00,76.3,66.2,30.17,North,0,0.0,0.0,71,0.00,,,0.00,WUHU216HW,2013-06-09 13:41:00,
2013-06-09 09:42:00,76.3,66.2,30.17,North,0,0.0,0.0,71,0.00,,,0.00,WUHU216HW,2013-06-09 13:42:00,
2013-06-09 09:43:00,76.3,66.2,30.18,North,0,0.0,0.0,71,0.00,,,0.00,WUHU216HW,2013-06-09 13:43:00,
2013-06-09 09:44:00,76.3,66.2,30.18,North,0,0.0,0.0,71,0.00,,,0.00,WUHU216HW,2013-06-09 13:44:00,
2013-06-09 09:46:00,76.7,65.8,30.18,North,0,0.0,0.0,69,0.00,,,0.00,WUHU216HW,2013-06-09 13:46:00,
2013-06-09 09:47:00,76.7,65.8,30.18,North,0,0.0,0.0,69,0.00,,,0.00,WUHU216HW,2013-06-09 13:47:00,
2013-06-09 09:48:00,76.7,65.8,30.18,North,0,0.0,0.0,69,0.00,,,0.00,WUHU216HW,2013-06-09 13:48:00,
2013-06-09 09:49:00,76.7,65.8,30.18,North,0,0.0,0.0,69,0.00,,,0.00,WUHU216HW,2013-06-09 13:49:00,
2013-06-09 09:52:00,76.7,65.8,30.18,North,0,0.0,0.0,69,0.00,,,0.00,WUHU216HW,2013-06-09 13:52:00,
2013-06-09 09:53:00,77.8,66.3,30.18,North,0,0.0,0.0,68,0.00,,,0.00,WUHU216HW,2013-06-09 13:53:00,
2013-06-09 09:54:00,77.8,66.3,30.18,North,0,0.0,0.0,68,0.00,,,0.00,WUHU216HW,2013-06-09 13:54:00,
2013-06-09 09:57:00,77.8,66.3,30.18,North,0,0.0,0.0,68,0.00,,,0.00,WUHU216HW,2013-06-09 13:57:00,
2013-06-09 09:58:00,77.8,66.3,30.18,North,0,0.0,0.0,68,0.00,,,0.00,WUHU216HW,2013-06-09 13:58:00,
2013-06-09 09:59:00,78.8,67.3,30.18,North,0,0.0,0.0,68,0.00,,,0.00,WUHU216HW,2013-06-09 13:59:00,
2013-06-09 10:02:00,79.4,67.4,30.18,North,0,0.0,0.0,67,0.00,,,0.00,WUHU216HW,2013-06-09 14:02:00,
2013-06-09 10:03:00,79.4,67.4,30.18,North,0,0.0,0.0,67,0.00,,,0.00,WUHU216HW,2013-06-09 14:03:00,
2013-06-09 10:04:00,79.4,67.4,30.18,North,0,0.0,0.0,67,0.00,,,0.00,WUHU216HW,2013-06-09 14:04:00,
2013-06-09 10:08:00,79.6,67.1,30.18,North,0,0.0,0.0,66,0.00,,,0.00,WUHU216HW,2013-06-09 14:08:00,
2013-06-09 10:09:00,79.6,67.1,30.18,North,0,0.0,0.0,66,0.00,,,0.00,WUHU216HW,2013-06-09 14:09:00,
2013-06-09 10:13:00,79.9,67.5,30.18,North,0,0.0,0.0,66,0.00,,,0.00,WUHU216HW,2013-06-09 14:13:00,
2013-06-09 10:14:00,79.9,67.5,30.18,North,0,0.0,0.0,66,0.00,,,0.00,WUHU216HW,2013-06-09 14:14:00,
2013-06-09 10:18:00,79.9,66.6,30.18,North,0,0.0,0.0,64,0.00,,,0.00,WUHU216HW,2013-06-09 14:18:00,
2013-06-09 10:19:00,79.9,66.6,30.18,North,0,0.0,0.0,64,0.00,,,0.00,WUHU216HW,2013-06-09 14:19:00,
2013-06-09 10:23:00,79.9,66.6,30.18,North,0,0.0,0.0,64,0.00,,,0.00,WUHU216HW,2013-06-09 14:23:00,
2013-06-09 10:24:00,79.9,66.6,30.18,North,0,0.0,0.0,64,0.00,,,0.00,WUHU216HW,2013-06-09 14:24:00,
2013-06-09 10:29:00,80.3,67.0,30.18,North,0,0.0,0.0,64,0.00,,,0.00,WUHU216HW,2013-06-09 14:29:00,
2013-06-09 10:30:00,80.3,67.0,30.18,North,0,0.0,0.0,64,0.00,,,0.00,WUHU216HW,2013-06-09 14:30:00,
2013-06-09 10:34:00,81.0,67.2,30.18,North,0,0.0,0.0,63,0.00,,,0.00,WUHU216HW,2013-06-09 14:34:00,
2013-06-09 10:35:00,81.0,67.2,30.18,North,0,0.0,0.0,63,0.00,,,0.00,WUHU216HW,2013-06-09 14:35:00,
2013-06-09 10:39:00,81.0,67.2,30.18,North,0,0.0,0.0,63,0.00,,,0.00,WUHU216HW,2013-06-09 14:39:00,
2013-06-09 10:40:00,81.0,67.2,30.18,North,0,0.0,0.0,63,0.00,,,0.00,WUHU216HW,2013-06-09 14:40:00,
2013-06-09 10:42:00,80.6,66.9,30.18,North,0,0.0,0.0,63,0.00,,,0.00,WUHU216HW,2013-06-09 14:42:00,
2013-06-09 10:44:00,80.6,66.9,30.18,North,0,0.0,0.0,63,0.00,,,0.00,WUHU216HW,2013-06-09 14:44:00,
2013-06-09 10:45:00,80.6,66.9,30.18,North,0,0.0,0.0,63,0.00,,,0.00,WUHU216HW,2013-06-09 14:45:00,
2013-06-09 10:47:00,80.6,66.9,30.18,North,0,0.0,0.0,63,0.00,,,0.00,WUHU216HW,2013-06-09 14:47:00,
2013-06-09 10:50:00,80.5,66.7,30.18,North,0,0.0,0.0,63,0.00,,,0.00,WUHU216HW,2013-06-09 14:50:00,
2013-06-09 10:51:00,80.5,66.7,30.19,North,0,0.0,0.0,63,0.00,,,0.00,WUHU216HW,2013-06-09 14:51:00,
2013-06-09 10:52:00,80.5,66.7,30.19,North,0,0.0,0.0,63,0.00,,,0.00,WUHU216HW,2013-06-09 14:52:00,
2013-06-09 10:55:00,80.6,66.4,30.18,North,0,0.0,0.0,62,0.00,,,0.00,WUHU216HW,2013-06-09 14:55:00,
2013-06-09 10:56:00,80.6,66.4,30.18,North,0,0.0,0.0,62,0.00,,,0.00,WUHU216HW,2013-06-09 14:56:00,
2013-06-09 10:57:00,80.6,66.4,30.18,North,0,0.0,0.0,62,0.00,,,0.00,WUHU216HW,2013-06-09 14:57:00,
2013-06-09 11:00:00,81.0,67.2,30.19,North,0,0.0,0.0,63,0.00,,,0.00,WUHU216HW,2013-06-09 15:00:00,
2013-06-09 11:01:00,81.0,67.2,30.18,North,0,0.0,0.0,63,0.00,,,0.00,WUHU216HW,2013-06-09 15:01:00,
2013-06-09 11:03:00,81.0,67.2,30.19,North,0,0.0,0.0,63,0.00,,,0.00,WUHU216HW,2013-06-09 15:03:00,
2013-06-09 11:05:00,81.0,67.2,30.18,North,0,0.0,0.0,63,0.00,,,0.00,WUHU216HW,2013-06-09 15:05:00,
2013-06-09 11:07:00,81.0,66.8,30.19,North,0,0.0,0.0,62,0.00,,,0.00,WUHU216HW,2013-06-09 15:07:00,
2013-06-09 11:08:00,81.0,66.8,30.19,North,0,0.0,0.0,62,0.00,,,0.00,WUHU216HW,2013-06-09 15:08:00,
2013-06-09 11:10:00,81.0,66.8,30.19,North,0,0.0,0.0,62,0.00,,,0.00,WUHU216HW,2013-06-09 15:10:00,
2013-06-09 11:11:00,81.0,66.8,30.19,North,0,0.0,0.0,62,0.00,,,0.00,WUHU216HW,2013-06-09 15:11:00,
2013-06-09 11:12:00,81.0,66.8,30.18,North,0,0.0,0.0,62,0.00,,,0.00,WUHU216HW,2013-06-09 15:12:00,
2013-06-09 11:13:00,81.0,67.2,30.18,North,0,0.0,0.0,63,0.00,,,0.00,WUHU216HW,2013-06-09 15:13:00,
2013-06-09 11:15:00,81.0,67.2,30.18,North,0,0.0,0.0,63,0.00,,,0.00,WUHU216HW,2013-06-09 15:15:00,
2013-06-09 11:16:00,81.0,67.2,30.19,North,0,0.0,0.0,63,0.00,,,0.00,WUHU216HW,2013-06-09 15:16:00,
2013-06-09 11:17:00,81.0,67.2,30.18,North,0,0.0,0.0,63,0.00,,,0.00,WUHU216HW,2013-06-09 15:17:00,
2013-06-09 11:18:00,81.0,67.2,30.18,North,0,0.0,0.0,63,0.00,,,0.00,WUHU216HW,2013-06-09 15:18:00,
2013-06-09 11:20:00,81.0,67.2,30.18,North,0,0.0,0.0,63,0.00,,,0.00,WUHU216HW,2013-06-09 15:20:00,
2013-06-09 11:22:00,81.5,66.8,30.18,North,0,0.0,0.0,61,0.00,,,0.00,WUHU216HW,2013-06-09 15:22:00,
2013-06-09 11:23:00,81.5,66.8,30.18,North,0,0.0,0.0,61,0.00,,,0.00,WUHU216HW,2013-06-09 15:23:00,
2013-06-09 11:25:00,81.5,66.8,30.18,North,0,0.0,0.0,61,0.00,,,0.00,WUHU216HW,2013-06-09 15:25:00,
2013-06-09 11:27:00,81.0,65.9,30.18,North,0,0.0,0.0,60,0.00,,,0.00,WUHU216HW,2013-06-09 15:27:00,
2013-06-09 11:28:00,81.0,65.9,30.18,North,0,0.0,0.0,60,0.00,,,0.00,WUHU216HW,2013-06-09 15:28:00,
2013-06-09 11:30:00,81.0,65.9,30.18,North,0,0.0,0.0,60,0.00,,,0.00,WUHU216HW,2013-06-09 15:30:00,
2013-06-09 11:32:00,81.0,65.9,30.18,North,0,0.0,0.0,60,0.00,,,0.00,WUHU216HW,2013-06-09 15:32:00,
2013-06-09 11:33:00,81.0,65.9,30.18,North,0,0.0,0.0,60,0.00,,,0.00,WUHU216HW,2013-06-09 15:33:00,
2013-06-09 11:35:00,81.0,65.9,30.18,North,0,0.0,0.0,60,0.00,,,0.00,WUHU216HW,2013-06-09 15:35:00,
2013-06-09 11:37:00,81.0,65.9,30.18,North,0,0.0,0.0,60,0.00,,,0.00,WUHU216HW,2013-06-09 15:37:00,
2013-06-09 11:38:00,81.0,65.9,30.18,North,0,0.0,0.0,60,0.00,,,0.00,WUHU216HW,2013-06-09 15:38:00,
2013-06-09 11:40:00,81.0,65.9,30.18,North,0,0.0,0.0,60,0.00,,,0.00,WUHU216HW,2013-06-09 15:40:00,
2013-06-09 11:41:00,81.0,65.9,30.18,North,0,0.0,0.0,60,0.00,,,0.00,WUHU216HW,2013-06-09 15:41:00,
2013-06-09 11:43:00,80.8,65.7,30.18,North,0,0.0,0.0,60,0.00,,,0.00,WUHU216HW,2013-06-09 15:43:00,
2013-06-09 11:45:00,80.6,65.5,30.18,North,0,0.0,0.0,60,0.00,,,0.00,WUHU216HW,2013-06-09 15:45:00,
2013-06-09 11:46:00,80.6,65.5,30.18,North,0,0.0,0.0,60,0.00,,,0.00,WUHU216HW,2013-06-09 15:46:00,
2013-06-09 11:48:00,80.5,65.8,30.18,North,0,0.0,0.0,61,0.00,,,0.00,WUHU216HW,2013-06-09 15:48:00,
2013-06-09 11:49:00,80.5,65.8,30.18,North,0,0.0,0.0,61,0.00,,,0.00,WUHU216HW,2013-06-09 15:49:00,
2013-06-09 11:50:00,80.5,65.8,30.18,North,0,0.0,0.0,61,0.00,,,0.00,WUHU216HW,2013-06-09 15:50:00,
2013-06-09 11:51:00,80.5,65.8,30.18,North,0,0.0,0.0,61,0.00,,,0.00,WUHU216HW,2013-06-09 15:51:00,
2013-06-09 11:53:00,80.8,66.6,30.19,North,0,0.0,0.0,62,0.00,,,0.00,WUHU216HW,2013-06-09 15:53:00,
2013-06-09 11:54:00,80.8,66.6,30.19,North,0,0.0,0.0,62,0.00,,,0.00,WUHU216HW,2013-06-09 15:54:00,
2013-06-09 11:56:00,80.8,66.6,30.19,North,0,0.0,0.0,62,0.00,,,0.00,WUHU216HW,2013-06-09 15:56:00,
2013-06-09 11:59:00,81.2,66.9,30.19,North,0,0.0,0.0,62,0.00,,,0.00,WUHU216HW,2013-06-09 15:59:00,
2013-06-09 12:01:00,81.2,66.9,30.19,North,0,0.0,0.0,62,0.00,,,0.00,WUHU216HW,2013-06-09 16:01:00,
2013-06-09 12:02:00,81.5,66.3,30.19,North,0,0.0,0.0,60,0.00,,,0.00,WUHU216HW,2013-06-09 16:02:00,
2013-06-09 12:04:00,81.5,66.3,30.19,North,0,0.0,0.0,60,0.00,,,0.00,WUHU216HW,2013-06-09 16:04:00,
2013-06-09 12:06:00,81.5,66.3,30.19,North,0,0.0,0.0,60,0.00,,,0.00,WUHU216HW,2013-06-09 16:06:00,
2013-06-09 12:07:00,81.2,66.0,30.19,North,0,0.0,0.0,60,0.00,,,0.00,WUHU216HW,2013-06-09 16:07:00,
2013-06-09 12:09:00,81.2,66.0,30.19,North,0,0.0,0.0,60,0.00,,,0.00,WUHU216HW,2013-06-09 16:09:00,
2013-06-09 12:12:00,81.2,66.0,30.19,North,0,0.0,0.0,60,0.00,,,0.00,WUHU216HW,2013-06-09 16:12:00,
2013-06-09 12:14:00,81.2,65.5,30.19,North,0,0.0,0.0,59,0.00,,,0.00,WUHU216HW,2013-06-09 16:14:00,
2013-06-09 12:17:00,81.2,65.5,30.18,North,0,0.0,0.0,59,0.00,,,0.00,WUHU216HW,2013-06-09 16:17:00,
2013-06-09 12:18:00,81.2,65.5,30.19,North,0,0.0,0.0,59,0.00,,,0.00,WUHU216HW,2013-06-09 16:18:00,
2013-06-09 12:19:00,81.2,65.5,30.18,North,0,0.0,0.0,59,0.00,,,0.00,WUHU216HW,2013-06-09 16:19:00,
2013-06-09 12:22:00,81.4,65.6,30.18,North,0,0.0,0.0,59,0.00,,,0.00,WUHU216HW,2013-06-09 16:22:00,
2013-06-09 12:23:00,81.5,65.8,30.18,North,0,0.0,0.0,59,0.00,,,0.00,WUHU216HW,2013-06-09 16:23:00,
2013-06-09 12:24:00,81.5,65.8,30.18,North,0,0.0,0.0,59,0.00,,,0.00,WUHU216HW,2013-06-09 16:24:00,
2013-06-09 12:27:00,81.7,66.0,30.18,North,0,0.0,0.0,59,0.00,,,0.00,WUHU216HW,2013-06-09 16:27:00,
2013-06-09 12:28:00,81.7,66.0,30.18,North,0,0.0,0.0,59,0.00,,,0.00,WUHU216HW,2013-06-09 16:28:00,
2013-06-09 12:29:00,81.9,66.2,30.18,North,0,0.0,0.0,59,0.00,,,0.00,WUHU216HW,2013-06-09 16:29:00,
2013-06-09 12:30:00,81.9,66.2,30.18,North,0,0.0,0.0,59,0.00,,,0.00,WUHU216HW,2013-06-09 16:30:00,
2013-06-09 12:32:00,81.9,66.2,30.18,North,0,0.0,0.0,59,0.00,,,0.00,WUHU216HW,2013-06-09 16:32:00,
2013-06-09 12:33:00,82.1,65.3,30.18,North,0,0.0,0.0,57,0.00,,,0.00,WUHU216HW,2013-06-09 16:33:00,
2013-06-09 12:34:00,82.3,66.0,30.18,North,0,0.0,0.0,58,0.00,,,0.00,WUHU216HW,2013-06-09 16:34:00,
2013-06-09 12:35:00,82.4,66.1,30.18,North,0,0.0,0.0,58,0.00,,,0.00,WUHU216HW,2013-06-09 16:35:00,
2013-06-09 12:37:00,82.4,66.1,30.18,North,0,0.0,0.0,58,0.00,,,0.00,WUHU216HW,2013-06-09 16:37:00,
2013-06-09 12:38:00,82.4,66.1,30.18,North,0,0.0,0.0,58,0.00,,,0.00,WUHU216HW,2013-06-09 16:38:00,
2013-06-09 12:39:00,82.6,65.8,30.17,North,0,0.0,0.0,57,0.00,,,0.00,WUHU216HW,2013-06-09 16:39:00,
2013-06-09 12:40:00,82.6,65.8,30.17,North,0,0.0,0.0,57,0.00,,,0.00,WUHU216HW,2013-06-09 16:40:00,
2013-06-09 12:43:00,82.4,65.6,30.18,North,0,0.0,0.0,57,0.00,,,0.00,WUHU216HW,2013-06-09 16:43:00,
2013-06-09 12:44:00,82.4,65.1,30.18,North,0,0.0,0.0,56,0.00,,,0.00,WUHU216HW,2013-06-09 16:44:00,
2013-06-09 12:45:00,82.4,65.1,30.18,North,0,0.0,0.0,56,0.00,,,0.00,WUHU216HW,2013-06-09 16:45:00,
2013-06-09 12:48:00,82.3,64.9,30.18,North,0,0.0,0.0,56,0.00,,,0.00,WUHU216HW,2013-06-09 16:48:00,
2013-06-09 12:49:00,82.3,64.9,30.18,North,0,0.0,0.0,56,0.00,,,0.00,WUHU216HW,2013-06-09 16:49:00,
2013-06-09 12:50:00,82.3,64.9,30.18,North,0,0.0,0.0,56,0.00,,,0.00,WUHU216HW,2013-06-09 16:50:00,
2013-06-09 12:53:00,82.3,64.9,30.18,North,0,0.0,0.0,56,0.00,,,0.00,WUHU216HW,2013-06-09 16:53:00,
2013-06-09 12:54:00,82.1,65.3,30.18,North,0,0.0,0.0,57,0.00,,,0.00,WUHU216HW,2013-06-09 16:54:00,
2013-06-09 12:55:00,82.1,65.8,30.17,North,0,0.0,0.0,58,0.00,,,0.00,WUHU216HW,2013-06-09 16:55:00,
2013-06-09 12:58:00,82.1,65.8,30.17,North,0,0.0,0.0,58,0.00,,,0.00,WUHU216HW,2013-06-09 16:58:00,
2013-06-09 12:59:00,81.9,65.6,30.17,North,0,0.0,0.0,58,0.00,,,0.00,WUHU216HW,2013-06-09 16:59:00,
2013-06-09 13:00:00,81.9,65.1,30.17,North,0,0.0,0.0,57,0.00,,,0.00,WUHU216HW,2013-06-09 17:00:00,
2013-06-09 13:03:00,81.9,65.1,30.17,North,0,0.0,0.0,57,0.00,,,0.00,WUHU216HW,2013-06-09 17:03:00,
2013-06-09 13:04:00,81.9,65.1,30.17,North,0,0.0,0.0,57,0.00,,,0.00,WUHU216HW,2013-06-09 17:04:00,
2013-06-09 13:05:00,81.9,65.1,30.17,North,0,0.0,0.0,57,0.00,,,0.00,WUHU216HW,2013-06-09 17:05:00,
2013-06-09 13:06:00,81.7,65.4,30.17,North,0,0.0,0.0,58,0.00,,,0.00,WUHU216HW,2013-06-09 17:06:00,
2013-06-09 13:09:00,81.7,65.4,30.17,North,0,0.0,0.0,58,0.00,,,0.00,WUHU216HW,2013-06-09 17:09:00,
2013-06-09 13:10:00,81.7,65.4,30.17,North,0,0.0,0.0,58,0.00,,,0.00,WUHU216HW,2013-06-09 17:10:00,
2013-06-09 13:11:00,81.7,65.4,30.17,North,0,0.0,0.0,58,0.00,,,0.00,WUHU216HW,2013-06-09 17:11:00,
2013-06-09 13:14:00,82.1,65.8,30.17,North,0,0.0,0.0,58,0.00,,,0.00,WUHU216HW,2013-06-09 17:14:00,
2013-06-09 13:15:00,82.1,65.8,30.17,North,0,0.0,0.0,58,0.00,,,0.00,WUHU216HW,2013-06-09 17:15:00,
2013-06-09 13:16:00,82.1,65.8,30.17,North,0,0.0,0.0,58,0.00,,,0.00,WUHU216HW,2013-06-09 17:16:00,
2013-06-09 13:19:00,81.5,64.8,30.17,North,0,0.0,0.0,57,0.00,,,0.00,WUHU216HW,2013-06-09 17:19:00,
2013-06-09 13:20:00,81.4,64.6,30.17,North,0,0.0,0.0,57,0.00,,,0.00,WUHU216HW,2013-06-09 17:20:00,
2013-06-09 13:21:00,81.4,64.6,30.17,North,0,0.0,0.0,57,0.00,,,0.00,WUHU216HW,2013-06-09 17:21:00,
2013-06-09 13:24:00,81.4,64.6,30.17,North,0,0.0,0.0,57,0.00,,,0.00,WUHU216HW,2013-06-09 17:24:00,
2013-06-09 13:25:00,81.4,64.6,30.17,North,0,0.0,0.0,57,0.00,,,0.00,WUHU216HW,2013-06-09 17:25:00,
2013-06-09 13:26:00,81.4,64.6,30.17,North,0,0.0,0.0,57,0.00,,,0.00,WUHU216HW,2013-06-09 17:26:00,
2013-06-09 13:27:00,80.6,65.0,30.17,North,0,0.0,0.0,59,0.00,,,0.00,WUHU216HW,2013-06-09 17:27:00,
2013-06-09 13:29:00,80.6,65.0,30.17,North,0,0.0,0.0,59,0.00,,,0.00,WUHU216HW,2013-06-09 17:29:00,
2013-06-09 13:30:00,80.6,65.0,30.17,North,0,0.0,0.0,59,0.00,,,0.00,WUHU216HW,2013-06-09 17:30:00,
2013-06-09 13:31:00,80.6,65.0,30.17,North,0,0.0,0.0,59,0.00,,,0.00,WUHU216HW,2013-06-09 17:31:00,
2013-06-09 13:32:00,80.6,65.0,30.17,North,0,0.0,0.0,59,0.00,,,0.00,WUHU216HW,2013-06-09 17:32:00,
2013-06-09 13:34:00,80.3,65.2,30.17,North,0,0.0,0.0,60,0.00,,,0.00,WUHU216HW,2013-06-09 17:34:00,
2013-06-09 13:36:00,80.3,65.2,30.16,North,0,0.0,0.0,60,0.00,,,0.00,WUHU216HW,2013-06-09 17:36:00,
2013-06-09 13:37:00,80.3,65.2,30.17,North,0,0.0,0.0,60,0.00,,,0.00,WUHU216HW,2013-06-09 17:37:00,
2013-06-09 13:38:00,80.1,65.1,30.17,North,0,0.0,0.0,60,0.00,,,0.00,WUHU216HW,2013-06-09 17:38:00,
2013-06-09 13:40:00,80.1,65.5,30.17,North,0,0.0,0.0,61,0.00,,,0.00,WUHU216HW,2013-06-09 17:40:00,
2013-06-09 13:41:00,80.1,65.5,30.17,North,0,0.0,0.0,61,0.00,,,0.00,WUHU216HW,2013-06-09 17:41:00,
2013-06-09 13:42:00,80.1,65.5,30.17,North,0,0.0,0.0,61,0.00,,,0.00,WUHU216HW,2013-06-09 17:42:00,
2013-06-09 13:43:00,80.1,65.5,30.17,North,0,0.0,0.0,61,0.00,,,0.00,WUHU216HW,2013-06-09 17:43:00,
2013-06-09 13:45:00,80.3,65.2,30.17,North,0,0.0,0.0,60,0.00,,,0.00,WUHU216HW,2013-06-09 17:45:00,
2013-06-09 13:46:00,80.5,65.3,30.16,North,0,0.0,0.0,60,0.00,,,0.00,WUHU216HW,2013-06-09 17:46:00,
2013-06-09 13:47:00,80.5,65.3,30.16,North,0,0.0,0.0,60,0.00,,,0.00,WUHU216HW,2013-06-09 17:47:00,
2013-06-09 13:48:00,80.5,65.3,30.16,North,0,0.0,0.0,60,0.00,,,0.00,WUHU216HW,2013-06-09 17:48:00,
2013-06-09 13:50:00,80.6,64.4,30.16,North,0,0.0,0.0,58,0.00,,,0.00,WUHU216HW,2013-06-09 17:50:00,
2013-06-09 13:51:00,80.6,64.4,30.16,North,0,0.0,0.0,58,0.00,,,0.00,WUHU216HW,2013-06-09 17:51:00,
2013-06-09 13:52:00,80.6,64.4,30.17,North,0,0.0,0.0,58,0.00,,,0.00,WUHU216HW,2013-06-09 17:52:00,
2013-06-09 13:53:00,80.6,64.4,30.16,North,0,0.0,0.0,58,0.00,,,0.00,WUHU216HW,2013-06-09 17:53:00,
2013-06-09 13:55:00,80.6,64.0,30.16,North,0,0.0,0.0,57,0.00,,,0.00,WUHU216HW,2013-06-09 17:55:00,
2013-06-09 13:56:00,80.6,64.0,30.16,North,0,0.0,0.0,57,0.00,,,0.00,WUHU216HW,2013-06-09 17:56:00,
2013-06-09 13:57:00,80.6,64.0,30.16,North,0,0.0,0.0,57,0.00,,,0.00,WUHU216HW,2013-06-09 17:57:00,
2013-06-09 13:58:00,80.6,64.0,30.16,North,0,0.0,0.0,57,0.00,,,0.00,WUHU216HW,2013-06-09 17:58:00,
2013-06-09 13:59:00,80.6,64.0,30.17,North,0,0.0,0.0,57,0.00,,,0.00,WUHU216HW,2013-06-09 17:59:00,
2013-06-09 14:00:00,80.6,64.0,30.16,North,0,0.0,0.0,57,0.00,,,0.00,WUHU216HW,2013-06-09 18:00:00,
2013-06-09 14:01:00,81.2,64.4,30.16,North,0,0.0,0.0,57,0.00,,,0.00,WUHU216HW,2013-06-09 18:01:00,
2013-06-09 14:03:00,81.2,64.4,30.16,North,0,0.0,0.0,57,0.00,,,0.00,WUHU216HW,2013-06-09 18:03:00,
2013-06-09 14:04:00,81.2,64.4,30.16,North,0,0.0,0.0,57,0.00,,,0.00,WUHU216HW,2013-06-09 18:04:00,
2013-06-09 14:06:00,81.2,64.4,30.16,North,0,0.0,0.0,57,0.00,,,0.00,WUHU216HW,2013-06-09 18:06:00,
2013-06-09 14:08:00,81.7,63.9,30.16,North,0,0.0,0.0,55,0.00,,,0.00,WUHU216HW,2013-06-09 18:08:00,
2013-06-09 14:09:00,81.7,63.9,30.16,North,0,0.0,0.0,55,0.00,,,0.00,WUHU216HW,2013-06-09 18:09:00,
2013-06-09 14:11:00,81.7,63.9,30.16,North,0,0.0,0.0,55,0.00,,,0.00,WUHU216HW,2013-06-09 18:11:00,
2013-06-09 14:13:00,81.7,63.9,30.16,North,0,0.0,0.0,55,0.00,,,0.00,WUHU216HW,2013-06-09 18:13:00,
2013-06-09 14:14:00,81.9,65.1,30.16,North,0,0.0,0.0,57,0.00,,,0.00,WUHU216HW,2013-06-09 18:14:00,
2013-06-09 14:15:00,81.9,64.5,30.16,North,0,0.0,0.0,56,0.00,,,0.00,WUHU216HW,2013-06-09 18:15:00,
2013-06-09 14:16:00,81.9,64.5,30.16,North,0,0.0,0.0,56,0.00,,,0.00,WUHU216HW,2013-06-09 18:16:00,
2013-06-09 14:18:00,81.9,64.5,30.16,North,0,0.0,0.0,56,0.00,,,0.00,WUHU216HW,2013-06-09 18:18:00,
2013-06-09 14:19:00,81.9,64.5,30.16,North,0,0.0,0.0,56,0.00,,,0.00,WUHU216HW,2013-06-09 18:19:00,
2013-06-09 14:20:00,81.7,63.9,30.16,North,0,0.0,0.0,55,0.00,,,0.00,WUHU216HW,2013-06-09 18:20:00,
2013-06-09 14:21:00,81.7,63.9,30.16,North,0,0.0,0.0,55,0.00,,,0.00,WUHU216HW,2013-06-09 18:21:00,
2013-06-09 14:23:00,81.7,63.9,30.16,North,0,0.0,0.0,55,0.00,,,0.00,WUHU216HW,2013-06-09 18:23:00,
2013-06-09 14:24:00,81.7,63.9,30.16,North,0,0.0,0.0,55,0.00,,,0.00,WUHU216HW,2013-06-09 18:24:00,
2013-06-09 14:25:00,81.7,64.5,30.16,North,0,0.0,0.0,56,0.00,,,0.00,WUHU216HW,2013-06-09 18:25:00,
2013-06-09 14:27:00,81.7,64.9,30.16,North,0,0.0,0.0,57,0.00,,,0.00,WUHU216HW,2013-06-09 18:27:00,
2013-06-09 14:29:00,81.7,64.9,30.16,North,0,0.0,0.0,57,0.00,,,0.00,WUHU216HW,2013-06-09 18:29:00,
2013-06-09 14:30:00,81.7,64.9,30.16,North,0,0.0,0.0,57,0.00,,,0.00,WUHU216HW,2013-06-09 18:30:00,
2013-06-09 14:32:00,81.4,64.6,30.16,North,0,0.0,0.0,57,0.00,,,0.00,WUHU216HW,2013-06-09 18:32:00,
2013-06-09 14:34:00,81.4,64.6,30.16,North,0,0.0,0.0,57,0.00,,,0.00,WUHU216HW,2013-06-09 18:34:00,
2013-06-09 14:35:00,81.2,64.4,30.16,North,0,0.0,0.0,57,0.00,,,0.00,WUHU216HW,2013-06-09 18:35:00,
2013-06-09 14:37:00,81.2,64.4,30.16,North,0,0.0,0.0,57,0.00,,,0.00,WUHU216HW,2013-06-09 18:37:00,
2013-06-09 14:39:00,81.2,64.4,30.16,North,0,0.0,0.0,57,0.00,,,0.00,WUHU216HW,2013-06-09 18:39:00,
2013-06-09 14:40:00,81.2,64.4,30.15,North,0,0.0,0.0,57,0.00,,,0.00,WUHU216HW,2013-06-09 18:40:00,
2013-06-09 14:41:00,81.0,64.3,30.15,North,0,0.0,0.0,57,0.00,,,0.00,WUHU216HW,2013-06-09 18:41:00,
2013-06-09 14:42:00,81.0,64.3,30.15,North,0,0.0,0.0,57,0.00,,,0.00,WUHU216HW,2013-06-09 18:42:00,
2013-06-09 14:44:00,81.0,64.3,30.15,North,0,0.0,0.0,57,0.00,,,0.00,WUHU216HW,2013-06-09 18:44:00,
2013-06-09 14:45:00,80.6,64.0,30.15,North,0,0.0,0.0,57,0.00,,,0.00,WUHU216HW,2013-06-09 18:45:00,
2013-06-09 14:46:00,80.6,64.0,30.15,North,0,0.0,0.0,57,0.00,,,0.00,WUHU216HW,2013-06-09 18:46:00,
2013-06-09 14:47:00,80.6,64.0,30.15,North,0,0.0,0.0,57,0.00,,,0.00,WUHU216HW,2013-06-09 18:47:00,
2013-06-09 14:50:00,80.6,63.5,30.16,North,0,0.0,0.0,56,0.00,,,0.00,WUHU216HW,2013-06-09 18:50:00,
2013-06-09 14:51:00,80.6,63.5,30.15,North,0,0.0,0.0,56,0.00,,,0.00,WUHU216HW,2013-06-09 18:51:00,
2013-06-09 14:52:00,80.6,63.5,30.15,North,0,0.0,0.0,56,0.00,,,0.00,WUHU216HW,2013-06-09 18:52:00,
2013-06-09 14:53:00,80.6,63.5,30.15,North,0,0.0,0.0,56,0.00,,,0.00,WUHU216HW,2013-06-09 18:53:00,
2013-06-09 14:55:00,80.6,63.5,30.15,North,0,0.0,0.0,56,0.00,,,0.00,WUHU216HW,2013-06-09 18:55:00,
2013-06-09 14:56:00,80.6,63.5,30.15,North,0,0.0,0.0,56,0.00,,,0.00,WUHU216HW,2013-06-09 18:56:00,
2013-06-09 14:57:00,80.6,63.5,30.16,North,0,0.0,0.0,56,0.00,,,0.00,WUHU216HW,2013-06-09 18:57:00,
2013-06-09 14:58:00,80.6,63.5,30.16,North,0,0.0,0.0,56,0.00,,,0.00,WUHU216HW,2013-06-09 18:58:00,
2013-06-09 15:00:00,80.6,63.5,30.16,North,0,0.0,0.0,56,0.00,,,0.00,WUHU216HW,2013-06-09 19:00:00,
2013-06-09 15:01:00,80.6,63.5,30.16,North,0,0.0,0.0,56,0.00,,,0.00,WUHU216HW,2013-06-09 19:01:00,
2013-06-09 15:02:00,80.3,64.2,30.16,North,0,0.0,0.0,58,0.00,,,0.00,WUHU216HW,2013-06-09 19:02:00,
2013-06-09 15:03:00,80.3,64.2,30.16,North,0,0.0,0.0,58,0.00,,,0.00,WUHU216HW,2013-06-09 19:03:00,
2013-06-09 15:05:00,80.3,63.6,30.15,North,0,0.0,0.0,57,0.00,,,0.00,WUHU216HW,2013-06-09 19:05:00,
2013-06-09 15:06:00,80.3,63.6,30.15,North,0,0.0,0.0,57,0.00,,,0.00,WUHU216HW,2013-06-09 19:06:00,
2013-06-09 15:07:00,80.3,63.6,30.15,North,0,0.0,0.0,57,0.00,,,0.00,WUHU216HW,2013-06-09 19:07:00,
2013-06-09 15:08:00,80.3,63.6,30.15,North,0,0.0,0.0,57,0.00,,,0.00,WUHU216HW,2013-06-09 19:08:00,
2013-06-09 15:11:00,80.3,63.1,30.15,North,0,0.0,0.0,56,0.00,,,0.00,WUHU216HW,2013-06-09 19:11:00,
2013-06-09 15:12:00,80.3,63.1,30.15,North,0,0.0,0.0,56,0.00,,,0.00,WUHU216HW,2013-06-09 19:12:00,
2013-06-09 15:13:00,80.3,63.1,30.15,North,0,0.0,0.0,56,0.00,,,0.00,WUHU216HW,2013-06-09 19:13:00,
2013-06-09 15:17:00,80.1,62.9,30.15,North,0,0.0,0.0,56,0.00,,,0.00,WUHU216HW,2013-06-09 19:17:00,
2013-06-09 15:18:00,80.1,62.9,30.15,North,0,0.0,0.0,56,0.00,,,0.00,WUHU216HW,2013-06-09 19:18:00,
2013-06-09 15:22:00,80.1,62.5,30.15,North,0,0.0,0.0,55,0.00,,,0.00,WUHU216HW,2013-06-09 19:22:00,
2013-06-09 15:23:00,80.1,62.5,30.15,North,0,0.0,0.0,55,0.00,,,0.00,WUHU216HW,2013-06-09 19:23:00,
2013-06-09 15:24:00,80.1,62.5,30.15,North,0,0.0,0.0,55,0.00,,,0.00,WUHU216HW,2013-06-09 19:24:00,
2013-06-09 15:27:00,80.1,62.5,30.15,North,0,0.0,0.0,55,0.00,,,0.00,WUHU216HW,2013-06-09 19:27:00,
2013-06-09 15:29:00,79.6,62.5,30.15,North,0,0.0,0.0,56,0.00,,,0.00,WUHU216HW,2013-06-09 19:29:00,
2013-06-09 15:32:00,79.6,62.5,30.14,North,0,0.0,0.0,56,0.00,,,0.00,WUHU216HW,2013-06-09 19:32:00,
2013-06-09 15:33:00,79.7,62.1,30.14,North,0,0.0,0.0,55,0.00,,,0.00,WUHU216HW,2013-06-09 19:33:00,
2013-06-09 15:34:00,79.7,62.1,30.15,North,0,0.0,0.0,55,0.00,,,0.00,WUHU216HW,2013-06-09 19:34:00,
2013-06-09 15:37:00,79.7,62.1,30.14,North,0,0.0,0.0,55,0.00,,,0.00,WUHU216HW,2013-06-09 19:37:00,
2013-06-09 15:38:00,79.7,62.1,30.14,North,0,0.0,0.0,55,0.00,,,0.00,WUHU216HW,2013-06-09 19:38:00,
2013-06-09 15:39:00,79.7,62.1,30.14,North,0,0.0,0.0,55,0.00,,,0.00,WUHU216HW,2013-06-09 19:39:00,
2013-06-09 15:42:00,79.7,62.1,30.14,North,0,0.0,0.0,55,0.00,,,0.00,WUHU216HW,2013-06-09 19:42:00,
2013-06-09 15:43:00,79.7,62.1,30.14,North,0,0.0,0.0,55,0.00,,,0.00,WUHU216HW,2013-06-09 19:43:00,
2013-06-09 15:44:00,79.7,62.1,30.14,North,0,0.0,0.0,55,0.00,,,0.00,WUHU216HW,2013-06-09 19:44:00,
2013-06-09 15:45:00,79.7,62.1,30.14,North,0,0.0,0.0,55,0.00,,,0.00,WUHU216HW,2013-06-09 19:45:00,
2013-06-09 15:47:00,79.2,61.1,30.14,North,0,0.0,0.0,54,0.00,,,0.00,WUHU216HW,2013-06-09 19:47:00,
2013-06-09 15:48:00,79.2,61.1,30.14,North,0,0.0,0.0,54,0.00,,,0.00,WUHU216HW,2013-06-09 19:48:00,
2013-06-09 15:49:00,79.2,61.1,30.14,North,0,0.0,0.0,54,0.00,,,0.00,WUHU216HW,2013-06-09 19:49:00,
2013-06-09 15:50:00,79.2,61.1,30.14,North,0,0.0,0.0,54,0.00,,,0.00,WUHU216HW,2013-06-09 19:50:00,
2013-06-09 15:53:00,79.2,60.6,30.14,North,0,0.0,0.0,53,0.00,,,0.00,WUHU216HW,2013-06-09 19:53:00,
2013-06-09 15:54:00,79.2,60.6,30.14,North,0,0.0,0.0,53,0.00,,,0.00,WUHU216HW,2013-06-09 19:54:00,
2013-06-09 15:55:00,79.2,60.6,30.14,North,0,0.0,0.0,53,0.00,,,0.00,WUHU216HW,2013-06-09 19:55:00,
2013-06-09 15:58:00,79.2,60.6,30.14,North,0,0.0,0.0,53,0.00,,,0.00,WUHU216HW,2013-06-09 19:58:00,
2013-06-09 15:59:00,79.2,60.6,30.14,North,0,0.0,0.0,53,0.00,,,0.00,WUHU216HW,2013-06-09 19:59:00,
2013-06-09 16:00:00,79.2,60.0,30.14,North,0,0.0,0.0,52,0.00,,,0.00,WUHU216HW,2013-06-09 20:00:00,
2013-06-09 16:04:00,79.2,60.0,30.14,North,0,0.0,0.0,52,0.00,,,0.00,WUHU216HW,2013-06-09 20:04:00,
2013-06-09 16:05:00,78.8,60.2,30.14,North,0,0.0,0.0,53,0.00,,,0.00,WUHU216HW,2013-06-09 20:05:00,
2013-06-09 16:06:00,78.8,60.2,30.14,North,0,0.0,0.0,53,0.00,,,0.00,WUHU216HW,2013-06-09 20:06:00,
2013-06-09 16:09:00,78.8,60.2,30.14,North,0,0.0,0.0,53,0.00,,,0.00,WUHU216HW,2013-06-09 20:09:00,
2013-06-09 16:10:00,78.8,60.2,30.14,North,0,0.0,0.0,53,0.00,,,0.00,WUHU216HW,2013-06-09 20:10:00,
2013-06-09 16:11:00,78.5,60.4,30.13,North,0,0.0,0.0,54,0.00,,,0.00,WUHU216HW,2013-06-09 20:11:00,
2013-06-09 16:14:00,78.3,60.3,30.13,North,0,0.0,0.0,54,0.00,,,0.00,WUHU216HW,2013-06-09 20:14:00,
2013-06-09 16:15:00,78.3,60.3,30.13,North,0,0.0,0.0,54,0.00,,,0.00,WUHU216HW,2013-06-09 20:15:00,
2013-06-09 16:16:00,78.1,60.6,30.13,North,0,0.0,0.0,55,0.00,,,0.00,WUHU216HW,2013-06-09 20:16:00,
2013-06-09 16:19:00,78.1,60.6,30.13,North,0,0.0,0.0,55,0.00,,,0.00,WUHU216HW,2013-06-09 20:19:00,
2013-06-09 16:20:00,78.1,60.6,30.14,North,0,0.0,0.0,55,0.00,,,0.00,WUHU216HW,2013-06-09 20:20:00,
2013-06-09 16:22:00,77.9,60.9,30.14,North,0,0.0,0.0,56,0.00,,,0.00,WUHU216HW,2013-06-09 20:22:00,
2013-06-09 16:24:00,77.9,60.9,30.14,North,0,0.0,0.0,56,0.00,,,0.00,WUHU216HW,2013-06-09 20:24:00,
2013-06-09 16:25:00,77.8,61.8,30.14,North,0,0.0,0.0,58,0.00,,,0.00,WUHU216HW,2013-06-09 20:25:00,
2013-06-09 16:27:00,77.9,62.0,30.14,North,0,0.0,0.0,58,0.00,,,0.00,WUHU216HW,2013-06-09 20:27:00,
2013-06-09 16:29:00,77.9,62.0,30.13,North,0,0.0,0.0,58,0.00,,,0.00,WUHU216HW,2013-06-09 20:29:00,
2013-06-09 16:30:00,77.9,62.0,30.14,North,0,0.0,0.0,58,0.00,,,0.00,WUHU216HW,2013-06-09 20:30:00,
2013-06-09 16:31:00,78.1,62.6,30.14,North,0,0.0,0.0,59,0.00,,,0.00,WUHU216HW,2013-06-09 20:31:00,
2013-06-09 16:32:00,78.1,62.6,30.14,North,0,0.0,0.0,59,0.00,,,0.00,WUHU216HW,2013-06-09 20:32:00,
2013-06-09 16:35:00,78.3,62.8,30.14,North,0,0.0,0.0,59,0.00,,,0.00,WUHU216HW,2013-06-09 20:35:00,
2013-06-09 16:36:00,78.3,62.8,30.14,North,0,0.0,0.0,59,0.00,,,0.00,WUHU216HW,2013-06-09 20:36:00,
2013-06-09 16:37:00,78.3,62.8,30.14,North,0,0.0,0.0,59,0.00,,,0.00,WUHU216HW,2013-06-09 20:37:00,
2013-06-09 16:40:00,78.1,62.2,30.14,North,0,0.0,0.0,58,0.00,,,0.00,WUHU216HW,2013-06-09 20:40:00,
2013-06-09 16:41:00,78.1,62.2,30.14,North,0,0.0,0.0,58,0.00,,,0.00,WUHU216HW,2013-06-09 20:41:00,
2013-06-09 16:42:00,77.9,62.5,30.14,North,0,0.0,0.0,59,0.00,,,0.00,WUHU216HW,2013-06-09 20:42:00,
2013-06-09 16:45:00,77.9,62.5,30.14,North,0,0.0,0.0,59,0.00,,,0.00,WUHU216HW,2013-06-09 20:45:00,
2013-06-09 16:46:00,77.9,62.5,30.14,North,0,0.0,0.0,59,0.00,,,0.00,WUHU216HW,2013-06-09 20:46:00,
2013-06-09 16:47:00,77.8,62.8,30.14,North,0,0.0,0.0,60,0.00,,,0.00,WUHU216HW,2013-06-09 20:47:00,
2013-06-09 16:48:00,77.8,62.8,30.14,North,0,0.0,0.0,60,0.00,,,0.00,WUHU216HW,2013-06-09 20:48:00,
2013-06-09 16:51:00,77.6,62.6,30.14,North,0,0.0,0.0,60,0.00,,,0.00,WUHU216HW,2013-06-09 20:51:00,
2013-06-09 16:52:00,77.6,62.6,30.14,North,0,0.0,0.0,60,0.00,,,0.00,WUHU216HW,2013-06-09 20:52:00,
2013-06-09 16:53:00,77.6,62.6,30.14,North,0,0.0,0.0,60,0.00,,,0.00,WUHU216HW,2013-06-09 20:53:00,
2013-06-09 16:56:00,77.4,61.9,30.14,North,0,0.0,0.0,59,0.00,,,0.00,WUHU216HW,2013-06-09 20:56:00,
2013-06-09 16:57:00,77.4,61.9,30.14,North,0,0.0,0.0,59,0.00,,,0.00,WUHU216HW,2013-06-09 20:57:00,
2013-06-09 16:58:00,77.4,61.9,30.14,North,0,0.0,0.0,59,0.00,,,0.00,WUHU216HW,2013-06-09 20:58:00,
2013-06-09 17:01:00,77.4,61.9,30.14,North,0,0.0,0.0,59,0.00,,,0.00,WUHU216HW,2013-06-09 21:01:00,
2013-06-09 17:02:00,77.2,61.7,30.14,North,0,0.0,0.0,59,0.00,,,0.00,WUHU216HW,2013-06-09 21:02:00,
2013-06-09 17:03:00,77.2,61.7,30.14,North,0,0.0,0.0,59,0.00,,,0.00,WUHU216HW,2013-06-09 21:03:00,
2013-06-09 17:04:00,77.2,61.7,30.14,North,0,0.0,0.0,59,0.00,,,0.00,WUHU216HW,2013-06-09 21:04:00,
2013-06-09 17:06:00,76.9,61.5,30.14,North,0,0.0,0.0,59,0.00,,,0.00,WUHU216HW,2013-06-09 21:06:00,
2013-06-09 17:08:00,76.9,61.5,30.14,North,0,0.0,0.0,59,0.00,,,0.00,WUHU216HW,2013-06-09 21:08:00,
2013-06-09 17:09:00,76.9,61.5,30.14,North,0,0.0,0.0,59,0.00,,,0.00,WUHU216HW,2013-06-09 21:09:00,
2013-06-09 17:11:00,76.9,61.5,30.14,North,0,0.0,0.0,59,0.00,,,0.00,WUHU216HW,2013-06-09 21:11:00,
2013-06-09 17:13:00,76.3,61.5,30.14,North,0,0.0,0.0,60,0.00,,,0.00,WUHU216HW,2013-06-09 21:13:00,
2013-06-09 17:14:00,76.3,61.5,30.14,North,0,0.0,0.0,60,0.00,,,0.00,WUHU216HW,2013-06-09 21:14:00,
2013-06-09 17:16:00,76.3,61.5,30.14,North,0,0.0,0.0,60,0.00,,,0.00,WUHU216HW,2013-06-09 21:16:00,
2013-06-09 17:18:00,76.3,61.9,30.14,North,0,0.0,0.0,61,0.00,,,0.00,WUHU216HW,2013-06-09 21:18:00,
2013-06-09 17:19:00,76.3,61.9,30.14,North,0,0.0,0.0,61,0.00,,,0.00,WUHU216HW,2013-06-09 21:19:00,
2013-06-09 17:21:00,76.3,61.9,30.14,North,0,0.0,0.0,61,0.00,,,0.00,WUHU216HW,2013-06-09 21:21:00,
2013-06-09 17:24:00,76.3,61.9,30.14,North,0,0.0,0.0,61,0.00,,,0.00,WUHU216HW,2013-06-09 21:24:00,
2013-06-09 17:27:00,76.0,61.6,30.13,North,0,0.0,0.0,61,0.00,,,0.00,WUHU216HW,2013-06-09 21:27:00,
2013-06-09 17:29:00,76.0,61.6,30.14,North,0,0.0,0.0,61,0.00,,,0.00,WUHU216HW,2013-06-09 21:29:00,
2013-06-09 17:30:00,75.8,61.4,30.14,North,0,0.0,0.0,61,0.00,,,0.00,WUHU216HW,2013-06-09 21:30:00,
2013-06-09 17:32:00,75.8,61.4,30.13,North,0,0.0,0.0,61,0.00,,,0.00,WUHU216HW,2013-06-09 21:32:00,
2013-06-09 17:34:00,75.8,61.4,30.13,North,0,0.0,0.0,61,0.00,,,0.00,WUHU216HW,2013-06-09 21:34:00,
2013-06-09 17:35:00,75.4,61.5,30.13,North,0,0.0,0.0,62,0.00,,,0.00,WUHU216HW,2013-06-09 21:35:00,
2013-06-09 17:37:00,75.4,61.5,30.13,North,0,0.0,0.0,62,0.00,,,0.00,WUHU216HW,2013-06-09 21:37:00,
2013-06-09 17:39:00,75.4,61.5,30.13,North,0,0.0,0.0,62,0.00,,,0.00,WUHU216HW,2013-06-09 21:39:00,
2013-06-09 17:40:00,75.4,61.5,30.13,North,0,0.0,0.0,62,0.00,,,0.00,WUHU216HW,2013-06-09 21:40:00,
2013-06-09 17:43:00,75.4,61.5,30.13,North,0,0.0,0.0,62,0.00,,,0.00,WUHU216HW,2013-06-09 21:43:00,
2013-06-09 17:44:00,75.4,61.5,30.13,North,0,0.0,0.0,62,0.00,,,0.00,WUHU216HW,2013-06-09 21:44:00,
2013-06-09 17:45:00,75.4,61.5,30.13,North,0,0.0,0.0,62,0.00,,,0.00,WUHU216HW,2013-06-09 21:45:00,
2013-06-09 17:46:00,75.4,61.5,30.13,North,0,0.0,0.0,62,0.00,,,0.00,WUHU216HW,2013-06-09 21:46:00,
2013-06-09 17:48:00,74.7,61.3,30.13,North,0,0.0,0.0,63,0.00,,,0.00,WUHU216HW,2013-06-09 21:48:00,
2013-06-09 17:50:00,74.7,61.3,30.13,North,0,0.0,0.0,63,0.00,,,0.00,WUHU216HW,2013-06-09 21:50:00,
2013-06-09 17:51:00,74.7,61.3,30.13,North,0,0.0,0.0,63,0.00,,,0.00,WUHU216HW,2013-06-09 21:51:00,
2013-06-09 17:53:00,74.2,60.8,30.13,North,0,0.0,0.0,63,0.00,,,0.00,WUHU216HW,2013-06-09 21:53:00,
2013-06-09 17:55:00,74.2,60.8,30.13,North,0,0.0,0.0,63,0.00,,,0.00,WUHU216HW,2013-06-09 21:55:00,
2013-06-09 17:57:00,73.8,60.4,30.13,North,0,0.0,0.0,63,0.00,,,0.00,WUHU216HW,2013-06-09 21:57:00,
2013-06-09 17:58:00,73.8,60.4,30.13,North,0,0.0,0.0,63,0.00,,,0.00,WUHU216HW,2013-06-09 21:58:00,
2013-06-09 18:00:00,73.8,60.4,30.13,North,0,0.0,0.0,63,0.00,,,0.00,WUHU216HW,2013-06-09 22:00:00,
2013-06-09 18:01:00,73.8,60.4,30.13,North,0,0.0,0.0,63,0.00,,,0.00,WUHU216HW,2013-06-09 22:01:00,
2013-06-09 18:02:00,73.8,60.4,30.13,North,0,0.0,0.0,63,0.00,,,0.00,WUHU216HW,2013-06-09 22:02:00,
2013-06-09 18:03:00,73.8,60.4,30.13,North,0,0.0,0.0,63,0.00,,,0.00,WUHU216HW,2013-06-09 22:03:00,
2013-06-09 18:05:00,73.8,60.4,30.13,North,0,0.0,0.0,63,0.00,,,0.00,WUHU216HW,2013-06-09 22:05:00,
2013-06-09 18:07:00,73.8,60.4,30.13,North,0,0.0,0.0,63,0.00,,,0.00,WUHU216HW,2013-06-09 22:07:00,
2013-06-09 18:08:00,73.8,60.4,30.13,North,0,0.0,0.0,63,0.00,,,0.00,WUHU216HW,2013-06-09 22:08:00,
2013-06-09 18:10:00,72.7,60.7,30.13,North,0,0.0,0.0,66,0.00,,,0.00,WUHU216HW,2013-06-09 22:10:00,
2013-06-09 18:11:00,72.7,60.7,30.13,North,0,0.0,0.0,66,0.00,,,0.00,WUHU216HW,2013-06-09 22:11:00,
2013-06-09 18:12:00,72.7,60.7,30.13,North,0,0.0,0.0,66,0.00,,,0.00,WUHU216HW,2013-06-09 22:12:00,
2013-06-09 18:14:00,72.7,60.7,30.13,North,0,0.0,0.0,66,0.00,,,0.00,WUHU216HW,2013-06-09 22:14:00,
2013-06-09 18:16:00,72.7,60.7,30.13,North,0,0.0,0.0,66,0.00,,,0.00,WUHU216HW,2013-06-09 22:16:00,
2013-06-09 18:17:00,72.7,60.7,30.13,North,0,0.0,0.0,66,0.00,,,0.00,WUHU216HW,2013-06-09 22:17:00,
2013-06-09 18:18:00,72.7,60.7,30.13,North,0,0.0,0.0,66,0.00,,,0.00,WUHU216HW,2013-06-09 22:18:00,
2013-06-09 18:19:00,72.5,60.9,30.13,North,0,0.0,0.0,67,0.00,,,0.00,WUHU216HW,2013-06-09 22:19:00,
2013-06-09 18:22:00,72.5,60.9,30.13,North,0,0.0,0.0,67,0.00,,,0.00,WUHU216HW,2013-06-09 22:22:00,
2013-06-09 18:23:00,72.5,61.4,30.13,North,0,0.0,0.0,68,0.00,,,0.00,WUHU216HW,2013-06-09 22:23:00,
2013-06-09 18:24:00,72.5,61.4,30.13,North,0,0.0,0.0,68,0.00,,,0.00,WUHU216HW,2013-06-09 22:24:00,
2013-06-09 18:27:00,72.5,61.4,30.13,North,0,0.0,0.0,68,0.00,,,0.00,WUHU216HW,2013-06-09 22:27:00,
2013-06-09 18:28:00,72.5,61.4,30.13,North,0,0.0,0.0,68,0.00,,,0.00,WUHU216HW,2013-06-09 22:28:00,
2013-06-09 18:29:00,72.2,61.0,30.13,North,0,0.0,0.0,68,0.00,,,0.00,WUHU216HW,2013-06-09 22:29:00,
2013-06-09 18:32:00,72.0,60.8,30.13,North,0,0.0,0.0,68,0.00,,,0.00,WUHU216HW,2013-06-09 22:32:00,
2013-06-09 18:33:00,72.0,60.8,30.13,North,0,0.0,0.0,68,0.00,,,0.00,WUHU216HW,2013-06-09 22:33:00,
2013-06-09 18:34:00,72.0,60.8,30.13,North,0,0.0,0.0,68,0.00,,,0.00,WUHU216HW,2013-06-09 22:34:00,
2013-06-09 18:37:00,71.6,61.4,30.13,North,0,0.0,0.0,70,0.00,,,0.00,WUHU216HW,2013-06-09 22:37:00,
2013-06-09 18:38:00,71.6,61.4,30.13,North,0,0.0,0.0,70,0.00,,,0.00,WUHU216HW,2013-06-09 22:38:00,
2013-06-09 18:39:00,71.6,61.4,30.13,North,0,0.0,0.0,70,0.00,,,0.00,WUHU216HW,2013-06-09 22:39:00,
2013-06-09 18:42:00,71.6,60.9,30.13,North,0,0.0,0.0,69,0.00,,,0.00,WUHU216HW,2013-06-09 22:42:00,
2013-06-09 18:43:00,71.6,60.9,30.13,North,0,0.0,0.0,69,0.00,,,0.00,WUHU216HW,2013-06-09 22:43:00,
2013-06-09 18:44:00,71.6,60.9,30.13,North,0,0.0,0.0,69,0.00,,,0.00,WUHU216HW,2013-06-09 22:44:00,
2013-06-09 18:48:00,71.3,60.6,30.13,North,0,0.0,0.0,69,0.00,,,0.00,WUHU216HW,2013-06-09 22:48:00,
2013-06-09 18:49:00,71.3,60.6,30.13,North,0,0.0,0.0,69,0.00,,,0.00,WUHU216HW,2013-06-09 22:49:00,
2013-06-09 18:50:00,71.3,60.6,30.13,North,0,0.0,0.0,69,0.00,,,0.00,WUHU216HW,2013-06-09 22:50:00,
2013-06-09 18:53:00,71.1,60.8,30.13,North,0,0.0,0.0,70,0.00,,,0.00,WUHU216HW,2013-06-09 22:53:00,
2013-06-09 18:54:00,71.3,61.0,30.13,North,0,0.0,0.0,70,0.00,,,0.00,WUHU216HW,2013-06-09 22:54:00,
2013-06-09 18:55:00,71.3,61.0,30.13,North,0,0.0,0.0,70,0.00,,,0.00,WUHU216HW,2013-06-09 22:55:00,
2013-06-09 18:58:00,71.3,61.0,30.14,North,0,0.0,0.0,70,0.00,,,0.00,WUHU216HW,2013-06-09 22:58:00,
2013-06-09 18:59:00,71.3,61.0,30.14,North,0,0.0,0.0,70,0.00,,,0.00,WUHU216HW,2013-06-09 22:59:00,
2013-06-09 19:01:00,71.3,61.0,30.14,North,0,0.0,0.0,70,0.00,,,0.00,WUHU216HW,2013-06-09 23:01:00,
2013-06-09 19:03:00,71.5,61.2,30.14,North,0,0.0,0.0,70,0.00,,,0.00,WUHU216HW,2013-06-09 23:03:00,
2013-06-09 19:04:00,71.5,61.2,30.14,North,0,0.0,0.0,70,0.00,,,0.00,WUHU216HW,2013-06-09 23:04:00,
2013-06-09 19:06:00,71.5,61.2,30.14,North,0,0.0,0.0,70,0.00,,,0.00,WUHU216HW,2013-06-09 23:06:00,
2013-06-09 19:08:00,71.6,61.4,30.14,North,0,0.0,0.0,70,0.00,,,0.00,WUHU216HW,2013-06-09 23:08:00,
2013-06-09 19:09:00,71.6,61.4,30.14,North,0,0.0,0.0,70,0.00,,,0.00,WUHU216HW,2013-06-09 23:09:00,
2013-06-09 19:11:00,71.6,61.4,30.14,North,0,0.0,0.0,70,0.00,,,0.00,WUHU216HW,2013-06-09 23:11:00,
2013-06-09 19:13:00,71.5,61.6,30.14,North,0,0.0,0.0,71,0.00,,,0.00,WUHU216HW,2013-06-09 23:13:00,
2013-06-09 19:14:00,71.5,61.6,30.14,North,0,0.0,0.0,71,0.00,,,0.00,WUHU216HW,2013-06-09 23:14:00,
2013-06-09 19:16:00,71.5,61.2,30.14,North,0,0.0,0.0,70,0.00,,,0.00,WUHU216HW,2013-06-09 23:16:00,
2013-06-09 19:19:00,71.5,61.2,30.14,North,0,0.0,0.0,70,0.00,,,0.00,WUHU216HW,2013-06-09 23:19:00,
2013-06-09 19:20:00,71.1,61.2,30.14,North,0,0.0,0.0,71,0.00,,,0.00,WUHU216HW,2013-06-09 23:20:00,
2013-06-09 19:22:00,70.9,61.0,30.14,North,0,0.0,0.0,71,0.00,,,0.00,WUHU216HW,2013-06-09 23:22:00,
2013-06-09 19:24:00,70.9,61.0,30.14,North,0,0.0,0.0,71,0.00,,,0.00,WUHU216HW,2013-06-09 23:24:00,
2013-06-09 19:25:00,70.9,61.0,30.14,North,0,0.0,0.0,71,0.00,,,0.00,WUHU216HW,2013-06-09 23:25:00,
2013-06-09 19:27:00,70.6,61.0,30.14,North,0,0.0,0.0,72,0.00,,,0.00,WUHU216HW,2013-06-09 23:27:00,
2013-06-09 19:29:00,70.6,61.0,30.14,North,0,0.0,0.0,72,0.00,,,0.00,WUHU216HW,2013-06-09 23:29:00,
2013-06-09 19:30:00,70.2,60.7,30.14,North,0,0.0,0.0,72,0.00,,,0.00,WUHU216HW,2013-06-09 23:30:00,
2013-06-09 19:32:00,70.0,60.9,30.14,North,0,0.0,0.0,73,0.00,,,0.00,WUHU216HW,2013-06-09 23:32:00,
2013-06-09 19:34:00,70.0,60.9,30.14,North,0,0.0,0.0,73,0.00,,,0.00,WUHU216HW,2013-06-09 23:34:00,
2013-06-09 19:35:00,70.0,60.9,30.14,North,0,0.0,0.0,73,0.00,,,0.00,WUHU216HW,2013-06-09 23:35:00,
2013-06-09 19:37:00,69.7,60.9,30.14,North,0,0.0,0.0,74,0.00,,,0.00,WUHU216HW,2013-06-09 23:37:00,
2013-06-09 19:40:00,69.5,60.8,30.14,North,0,0.0,0.0,74,0.00,,,0.00,WUHU216HW,2013-06-09 23:40:00,
2013-06-09 19:42:00,69.5,60.8,30.14,North,0,0.0,0.0,74,0.00,,,0.00,WUHU216HW,2013-06-09 23:42:00,
2013-06-09 19:45:00,69.3,60.6,30.14,North,0,0.0,0.0,74,0.00,,,0.00,WUHU216HW,2013-06-09 23:45:00,
2013-06-09 19:47:00,69.3,60.6,30.14,North,0,0.0,0.0,74,0.00,,,0.00,WUHU216HW,2013-06-09 23:47:00,
2013-06-09 19:50:00,69.3,60.6,30.14,North,0,0.0,0.0,74,0.00,,,0.00,WUHU216HW,2013-06-09 23:50:00,
2013-06-09 19:52:00,69.1,60.5,30.14,North,0,0.0,0.0,74,0.00,,,0.00,WUHU216HW,2013-06-09 23:52:00,
2013-06-09 19:53:00,69.1,60.5,30.15,North,0,0.0,0.0,74,0.00,,,0.00,WUHU216HW,2013-06-09 23:53:00,
2013-06-09 19:55:00,69.1,60.5,30.15,North,0,0.0,0.0,74,0.00,,,0.00,WUHU216HW,2013-06-09 23:55:00,
2013-06-09 19:56:00,69.1,60.5,30.15,North,0,0.0,0.0,74,0.00,,,0.00,WUHU216HW,2013-06-09 23:56:00,
2013-06-09 19:58:00,69.1,60.9,30.15,North,0,0.0,0.0,75,0.00,,,0.00,WUHU216HW,2013-06-09 23:58:00,
2013-06-09 20:00:00,69.1,60.9,30.15,North,0,0.0,0.0,75,0.00,,,0.00,WUHU216HW,2013-06-10 00:00:00,
2013-06-09 20:01:00,68.9,60.3,30.15,North,0,0.0,0.0,74,0.00,,,0.00,WUHU216HW,2013-06-10 00:01:00,
2013-06-09 20:03:00,68.9,60.7,30.15,North,0,0.0,0.0,75,0.00,,,0.00,WUHU216HW,2013-06-10 00:03:00,
2013-06-09 20:04:00,68.9,60.7,30.15,North,0,0.0,0.0,75,0.00,,,0.00,WUHU216HW,2013-06-10 00:04:00,
2013-06-09 20:05:00,68.9,60.7,30.15,North,0,0.0,0.0,75,0.00,,,0.00,WUHU216HW,2013-06-10 00:05:00,
2013-06-09 20:07:00,68.9,60.7,30.15,North,0,0.0,0.0,75,0.00,,,0.00,WUHU216HW,2013-06-10 00:07:00,
2013-06-09 20:09:00,68.9,60.7,30.15,North,0,0.0,0.0,75,0.00,,,0.00,WUHU216HW,2013-06-10 00:09:00,
2013-06-09 20:10:00,68.9,60.7,30.15,North,0,0.0,0.0,75,0.00,,,0.00,WUHU216HW,2013-06-10 00:10:00,
2013-06-09 20:12:00,68.8,60.5,30.15,North,0,0.0,0.0,75,0.00,,,0.00,WUHU216HW,2013-06-10 00:12:00,
2013-06-09 20:14:00,68.8,60.5,30.15,North,0,0.0,0.0,75,0.00,,,0.00,WUHU216HW,2013-06-10 00:14:00,
2013-06-09 20:15:00,68.8,60.5,30.15,North,0,0.0,0.0,75,0.00,,,0.00,WUHU216HW,2013-06-10 00:15:00,
2013-06-09 20:17:00,68.6,60.3,30.15,North,0,0.0,0.0,75,0.00,,,0.00,WUHU216HW,2013-06-10 00:17:00,
2013-06-09 20:19:00,68.6,60.8,30.15,North,0,0.0,0.0,76,0.00,,,0.00,WUHU216HW,2013-06-10 00:19:00,
2013-06-09 20:20:00,68.6,60.8,30.15,North,0,0.0,0.0,76,0.00,,,0.00,WUHU216HW,2013-06-10 00:20:00,
2013-06-09 20:22:00,68.4,60.6,30.15,North,0,0.0,0.0,76,0.00,,,0.00,WUHU216HW,2013-06-10 00:22:00,
2013-06-09 20:24:00,68.4,60.9,30.15,North,0,0.0,0.0,77,0.00,,,0.00,WUHU216HW,2013-06-10 00:24:00,
2013-06-09 20:25:00,68.4,60.9,30.15,North,0,0.0,0.0,77,0.00,,,0.00,WUHU216HW,2013-06-10 00:25:00,
2013-06-09 20:27:00,68.2,60.8,30.15,North,0,0.0,0.0,77,0.00,,,0.00,WUHU216HW,2013-06-10 00:27:00,
2013-06-09 20:29:00,68.4,61.3,30.15,North,0,0.0,0.0,78,0.00,,,0.00,WUHU216HW,2013-06-10 00:29:00,
2013-06-09 20:30:00,68.2,61.1,30.15,North,0,0.0,0.0,78,0.00,,,0.00,WUHU216HW,2013-06-10 00:30:00,
2013-06-09 20:32:00,68.2,60.8,30.15,North,0,0.0,0.0,77,0.00,,,0.00,WUHU216HW,2013-06-10 00:32:00,
2013-06-09 20:33:00,68.2,60.8,30.15,North,0,0.0,0.0,77,0.00,,,0.00,WUHU216HW,2013-06-10 00:33:00,
2013-06-09 20:34:00,68.2,60.8,30.15,North,0,0.0,0.0,77,0.00,,,0.00,WUHU216HW,2013-06-10 00:34:00,
2013-06-09 20:35:00,68.0,60.6,30.16,North,0,0.0,0.0,77,0.00,,,0.00,WUHU216HW,2013-06-10 00:35:00,
2013-06-09 20:37:00,68.0,61.0,30.16,North,0,0.0,0.0,78,0.00,,,0.00,WUHU216HW,2013-06-10 00:37:00,
2013-06-09 20:38:00,68.0,60.6,30.16,North,0,0.0,0.0,77,0.00,,,0.00,WUHU216HW,2013-06-10 00:38:00,
2013-06-09 20:40:00,68.0,61.0,30.16,North,0,0.0,0.0,78,0.00,,,0.00,WUHU216HW,2013-06-10 00:40:00,
2013-06-09 20:41:00,68.0,61.0,30.16,North,0,0.0,0.0,78,0.00,,,0.00,WUHU216HW,2013-06-10 00:41:00,
2013-06-09 20:43:00,68.0,61.0,30.15,North,0,0.0,0.0,78,0.00,,,0.00,WUHU216HW,2013-06-10 00:43:00,
2013-06-09 20:45:00,68.0,61.0,30.15,North,0,0.0,0.0,78,0.00,,,0.00,WUHU216HW,2013-06-10 00:45:00,
2013-06-09 20:46:00,68.0,61.0,30.16,North,0,0.0,0.0,78,0.00,,,0.00,WUHU216HW,2013-06-10 00:46:00,
2013-06-09 20:48:00,68.0,60.6,30.16,North,0,0.0,0.0,77,0.00,,,0.00,WUHU216HW,2013-06-10 00:48:00,
2013-06-09 20:49:00,68.0,60.6,30.16,North,0,0.0,0.0,77,0.00,,,0.00,WUHU216HW,2013-06-10 00:49:00,
2013-06-09 20:50:00,68.0,61.0,30.16,North,0,0.0,0.0,78,0.00,,,0.00,WUHU216HW,2013-06-10 00:50:00,
2013-06-09 20:51:00,68.0,61.0,30.15,North,0,0.0,0.0,78,0.00,,,0.00,WUHU216HW,2013-06-10 00:51:00,
2013-06-09 20:53:00,68.0,61.0,30.16,North,0,0.0,0.0,78,0.00,,,0.00,WUHU216HW,2013-06-10 00:53:00,
2013-06-09 20:54:00,68.0,61.0,30.16,North,0,0.0,0.0,78,0.00,,,0.00,WUHU216HW,2013-06-10 00:54:00,
2013-06-09 20:55:00,68.0,61.0,30.15,North,0,0.0,0.0,78,0.00,,,0.00,WUHU216HW,2013-06-10 00:55:00,
2013-06-09 20:57:00,68.0,61.0,30.15,North,0,0.0,0.0,78,0.00,,,0.00,WUHU216HW,2013-06-10 00:57:00,
2013-06-09 20:58:00,68.0,61.0,30.16,North,0,0.0,0.0,78,0.00,,,0.00,WUHU216HW,2013-06-10 00:58:00,
2013-06-09 20:59:00,67.9,60.9,30.16,North,0,0.0,0.0,78,0.00,,,0.00,WUHU216HW,2013-06-10 00:59:00,
2013-06-09 21:00:00,67.9,60.9,30.16,North,0,0.0,0.0,78,0.00,,,0.00,WUHU216HW,2013-06-10 01:00:00,
2013-06-09 21:02:00,67.9,60.9,30.16,North,0,0.0,0.0,78,0.00,,,0.00,WUHU216HW,2013-06-10 01:02:00,
2013-06-09 21:03:00,67.9,60.9,30.16,North,0,0.0,0.0,78,0.00,,,0.00,WUHU216HW,2013-06-10 01:03:00,
2013-06-09 21:04:00,67.9,60.9,30.16,North,0,0.0,0.0,78,0.00,,,0.00,WUHU216HW,2013-06-10 01:04:00,
2013-06-09 21:05:00,67.9,60.9,30.16,North,0,0.0,0.0,78,0.00,,,0.00,WUHU216HW,2013-06-10 01:05:00,
2013-06-09 21:08:00,67.7,61.4,30.16,North,0,0.0,0.0,80,0.00,,,0.00,WUHU216HW,2013-06-10 01:08:00,
2013-06-09 21:10:00,67.7,61.0,30.16,North,0,0.0,0.0,79,0.00,,,0.00,WUHU216HW,2013-06-10 01:10:00,
2013-06-09 21:13:00,67.7,61.4,30.16,North,0,0.0,0.0,80,0.00,,,0.00,WUHU216HW,2013-06-10 01:13:00,
2013-06-09 21:14:00,67.7,61.0,30.16,North,0,0.0,0.0,79,0.00,,,0.00,WUHU216HW,2013-06-10 01:14:00,
2013-06-09 21:15:00,67.7,61.0,30.16,North,0,0.0,0.0,79,0.00,,,0.00,WUHU216HW,2013-06-10 01:15:00,
2013-06-09 21:19:00,67.7,61.4,30.17,North,0,0.0,0.0,80,0.00,,,0.00,WUHU216HW,2013-06-10 01:19:00,
2013-06-09 21:20:00,67.7,61.4,30.17,North,0,0.0,0.0,80,0.00,,,0.00,WUHU216HW,2013-06-10 01:20:00,
2013-06-09 21:24:00,67.7,61.4,30.17,North,0,0.0,0.0,80,0.00,,,0.00,WUHU216HW,2013-06-10 01:24:00,
2013-06-09 21:25:00,67.7,61.4,30.17,North,0,0.0,0.0,80,0.00,,,0.00,WUHU216HW,2013-06-10 01:25:00,
2013-06-09 21:29:00,67.5,61.2,30.17,North,0,0.0,0.0,80,0.00,,,0.00,WUHU216HW,2013-06-10 01:29:00,
2013-06-09 21:30:00,67.5,61.2,30.17,North,0,0.0,0.0,80,0.00,,,0.00,WUHU216HW,2013-06-10 01:30:00,
2013-06-09 21:31:00,67.5,61.2,30.17,North,0,0.0,0.0,80,0.00,,,0.00,WUHU216HW,2013-06-10 01:31:00,
2013-06-09 21:34:00,67.5,61.2,30.17,North,0,0.0,0.0,80,0.00,,,0.00,WUHU216HW,2013-06-10 01:34:00,
2013-06-09 21:35:00,67.5,61.2,30.17,North,0,0.0,0.0,80,0.00,,,0.00,WUHU216HW,2013-06-10 01:35:00,
2013-06-09 21:36:00,67.5,61.2,30.17,North,0,0.0,0.0,80,0.00,,,0.00,WUHU216HW,2013-06-10 01:36:00,
2013-06-09 21:39:00,67.3,61.4,30.17,North,0,0.0,0.0,81,0.00,,,0.00,WUHU216HW,2013-06-10 01:39:00,
2013-06-09 21:40:00,67.3,61.4,30.17,North,0,0.0,0.0,81,0.00,,,0.00,WUHU216HW,2013-06-10 01:40:00,
2013-06-09 21:42:00,67.3,61.4,30.17,North,0,0.0,0.0,81,0.00,,,0.00,WUHU216HW,2013-06-10 01:42:00,
2013-06-09 21:44:00,67.3,61.4,30.17,North,0,0.0,0.0,81,0.00,,,0.00,WUHU216HW,2013-06-10 01:44:00,
2013-06-09 21:45:00,67.3,61.4,30.17,North,0,0.0,0.0,81,0.00,,,0.00,WUHU216HW,2013-06-10 01:45:00,
2013-06-09 21:46:00,67.3,61.4,30.17,North,0,0.0,0.0,81,0.00,,,0.00,WUHU216HW,2013-06-10 01:46:00,
2013-06-09 21:47:00,67.3,61.4,30.17,North,0,0.0,0.0,81,0.00,,,0.00,WUHU216HW,2013-06-10 01:47:00,
2013-06-09 21:49:00,67.3,61.4,30.18,North,0,0.0,0.0,81,0.00,,,0.00,WUHU216HW,2013-06-10 01:49:00,
2013-06-09 21:50:00,67.3,61.4,30.18,North,0,0.0,0.0,81,0.00,,,0.00,WUHU216HW,2013-06-10 01:50:00,
2013-06-09 21:51:00,67.3,61.4,30.17,North,0,0.0,0.0,81,0.00,,,0.00,WUHU216HW,2013-06-10 01:51:00,
2013-06-09 21:52:00,67.3,61.4,30.18,North,0,0.0,0.0,81,0.00,,,0.00,WUHU216HW,2013-06-10 01:52:00,
2013-06-09 21:54:00,67.3,61.7,30.18,North,0,0.0,0.0,82,0.00,,,0.00,WUHU216HW,2013-06-10 01:54:00,
2013-06-09 21:55:00,67.3,61.7,30.18,North,0,0.0,0.0,82,0.00,,,0.00,WUHU216HW,2013-06-10 01:55:00,
2013-06-09 21:56:00,67.3,61.7,30.18,North,0,0.0,0.0,82,0.00,,,0.00,WUHU216HW,2013-06-10 01:56:00,
2013-06-09 21:57:00,67.3,61.7,30.18,North,0,0.0,0.0,82,0.00,,,0.00,WUHU216HW,2013-06-10 01:57:00,
2013-06-09 21:59:00,67.3,61.7,30.18,North,0,0.0,0.0,82,0.00,,,0.00,WUHU216HW,2013-06-10 01:59:00,
2013-06-09 22:00:00,67.3,61.7,30.18,North,0,0.0,0.0,82,0.00,,,0.00,WUHU216HW,2013-06-10 02:00:00,
2013-06-09 22:01:00,67.3,61.7,30.18,North,0,0.0,0.0,82,0.00,,,0.00,WUHU216HW,2013-06-10 02:01:00,
2013-06-09 22:02:00,67.3,62.0,30.18,North,0,0.0,0.0,83,0.00,,,0.00,WUHU216HW,2013-06-10 02:02:00,
2013-06-09 22:04:00,67.3,61.7,30.18,North,0,0.0,0.0,82,0.00,,,0.00,WUHU216HW,2013-06-10 02:04:00,
2013-06-09 22:05:00,67.3,62.0,30.18,North,0,0.0,0.0,83,0.00,,,0.00,WUHU216HW,2013-06-10 02:05:00,
2013-06-09 22:06:00,67.3,61.7,30.18,North,0,0.0,0.0,82,0.00,,,0.00,WUHU216HW,2013-06-10 02:06:00,
2013-06-09 22:07:00,67.3,62.0,30.18,North,0,0.0,0.0,83,0.00,,,0.00,WUHU216HW,2013-06-10 02:07:00,
2013-06-09 22:10:00,67.1,61.8,30.18,North,0,0.0,0.0,83,0.00,,,0.00,WUHU216HW,2013-06-10 02:10:00,
2013-06-09 22:12:00,67.1,61.5,30.18,North,0,0.0,0.0,82,0.00,,,0.00,WUHU216HW,2013-06-10 02:12:00,
2013-06-09 22:13:00,67.1,61.8,30.18,North,0,0.0,0.0,83,0.00,,,0.00,WUHU216HW,2013-06-10 02:13:00,
2013-06-09 22:15:00,67.1,61.8,30.17,North,0,0.0,0.0,83,0.00,,,0.00,WUHU216HW,2013-06-10 02:15:00,
2013-06-09 22:17:00,67.1,61.8,30.18,North,0,0.0,0.0,83,0.00,,,0.00,WUHU216HW,2013-06-10 02:17:00,
2013-06-09 22:18:00,67.1,61.8,30.18,North,0,0.0,0.0,83,0.00,,,0.00,WUHU216HW,2013-06-10 02:18:00,
2013-06-09 22:20:00,67.1,61.8,30.18,North,0,0.0,0.0,83,0.00,,,0.00,WUHU216HW,2013-06-10 02:20:00,
2013-06-09 22:22:00,67.1,62.1,30.18,North,0,0.0,0.0,84,0.00,,,0.00,WUHU216HW,2013-06-10 02:22:00,
2013-06-09 22:23:00,67.1,62.1,30.18,North,0,0.0,0.0,84,0.00,,,0.00,WUHU216HW,2013-06-10 02:23:00,
2013-06-09 22:25:00,67.1,61.8,30.18,North,0,0.0,0.0,83,0.00,,,0.00,WUHU216HW,2013-06-10 02:25:00,
2013-06-09 22:27:00,67.1,61.8,30.18,North,0,0.0,0.0,83,0.00,,,0.00,WUHU216HW,2013-06-10 02:27:00,
2013-06-09 22:28:00,67.1,62.1,30.18,North,0,0.0,0.0,84,0.00,,,0.00,WUHU216HW,2013-06-10 02:28:00,
2013-06-09 22:30:00,67.1,62.1,30.18,North,0,0.0,0.0,84,0.00,,,0.00,WUHU216HW,2013-06-10 02:30:00,
2013-06-09 22:32:00,67.1,62.1,30.17,North,0,0.0,0.0,84,0.00,,,0.00,WUHU216HW,2013-06-10 02:32:00,
2013-06-09 22:33:00,67.1,62.1,30.18,North,0,0.0,0.0,84,0.00,,,0.00,WUHU216HW,2013-06-10 02:33:00,
2013-06-09 22:34:00,67.1,62.1,30.18,North,0,0.0,0.0,84,0.00,,,0.00,WUHU216HW,2013-06-10 02:34:00,
2013-06-09 22:36:00,67.1,62.1,30.17,North,0,0.0,0.0,84,0.00,,,0.00,WUHU216HW,2013-06-10 02:36:00,
2013-06-09 22:38:00,67.1,62.1,30.17,North,0,0.0,0.0,84,0.00,,,0.00,WUHU216HW,2013-06-10 02:38:00,
2013-06-09 22:39:00,67.1,62.1,30.18,North,0,0.0,0.0,84,0.00,,,0.00,WUHU216HW,2013-06-10 02:39:00,
2013-06-09 22:41:00,67.3,62.3,30.18,North,0,0.0,0.0,84,0.00,,,0.00,WUHU216HW,2013-06-10 02:41:00,
2013-06-09 22:43:00,67.3,62.3,30.18,North,0,0.0,0.0,84,0.00,,,0.00,WUHU216HW,2013-06-10 02:43:00,
2013-06-09 22:44:00,67.3,62.3,30.18,North,0,0.0,0.0,84,0.00,,,0.00,WUHU216HW,2013-06-10 02:44:00,
2013-06-09 22:47:00,67.3,62.3,30.18,North,0,0.0,0.0,84,0.00,,,0.00,WUHU216HW,2013-06-10 02:47:00,
2013-06-09 22:48:00,67.3,62.3,30.18,North,0,0.0,0.0,84,0.00,,,0.00,WUHU216HW,2013-06-10 02:48:00,
2013-06-09 22:49:00,67.3,62.3,30.17,North,0,0.0,0.0,84,0.00,,,0.00,WUHU216HW,2013-06-10 02:49:00,
2013-06-09 22:50:00,67.3,62.3,30.18,North,0,0.0,0.0,84,0.00,,,0.00,WUHU216HW,2013-06-10 02:50:00,
2013-06-09 22:52:00,67.3,62.3,30.17,North,0,0.0,0.0,84,0.00,,,0.00,WUHU216HW,2013-06-10 02:52:00,
2013-06-09 22:53:00,67.3,62.3,30.17,North,0,0.0,0.0,84,0.00,,,0.00,WUHU216HW,2013-06-10 02:53:00,
2013-06-09 22:54:00,67.3,62.3,30.17,North,0,0.0,0.0,84,0.00,,,0.00,WUHU216HW,2013-06-10 02:54:00,
2013-06-09 22:55:00,67.3,62.3,30.17,North,0,0.0,0.0,84,0.00,,,0.00,WUHU216HW,2013-06-10 02:55:00,
2013-06-09 22:57:00,67.5,62.5,30.17,North,0,0.0,0.0,84,0.00,,,0.00,WUHU216HW,2013-06-10 02:57:00,
2013-06-09 22:58:00,67.5,62.2,30.17,North,0,0.0,0.0,83,0.00,,,0.00,WUHU216HW,2013-06-10 02:58:00,
2013-06-09 22:59:00,67.5,62.2,30.17,North,0,0.0,0.0,83,0.00,,,0.00,WUHU216HW,2013-06-10 02:59:00,
2013-06-09 23:00:00,67.5,62.2,30.17,North,0,0.0,0.0,83,0.00,,,0.00,WUHU216HW,2013-06-10 03:00:00,
2013-06-09 23:03:00,67.5,62.2,30.17,North,0,0.0,0.0,83,0.00,,,0.00,WUHU216HW,2013-06-10 03:03:00,
2013-06-09 23:04:00,67.5,62.2,30.17,North,0,0.0,0.0,83,0.00,,,0.00,WUHU216HW,2013-06-10 03:04:00,
2013-06-09 23:05:00,67.5,62.2,30.17,North,0,0.0,0.0,83,0.00,,,0.00,WUHU216HW,2013-06-10 03:05:00,
2013-06-09 23:06:00,67.5,62.2,30.17,North,0,0.0,0.0,83,0.00,,,0.00,WUHU216HW,2013-06-10 03:06:00,
2013-06-09 23:08:00,67.5,62.2,30.17,North,0,0.0,0.0,83,0.00,,,0.00,WUHU216HW,2013-06-10 03:08:00,
2013-06-09 23:10:00,67.7,62.4,30.17,North,0,0.0,0.0,83,0.00,,,0.00,WUHU216HW,2013-06-10 03:10:00,
2013-06-09 23:11:00,67.5,62.2,30.17,North,0,0.0,0.0,83,0.00,,,0.00,WUHU216HW,2013-06-10 03:11:00,
2013-06-09 23:13:00,67.5,62.2,30.17,North,0,0.0,0.0,83,0.00,,,0.00,WUHU216HW,2013-06-10 03:13:00,
2013-06-09 23:15:00,67.7,62.4,30.17,North,0,0.0,0.0,83,0.00,,,0.00,WUHU216HW,2013-06-10 03:15:00,
2013-06-09 23:16:00,67.7,62.4,30.17,North,0,0.0,0.0,83,0.00,,,0.00,WUHU216HW,2013-06-10 03:16:00,
2013-06-09 23:18:00,67.7,62.4,30.17,North,0,0.0,0.0,83,0.00,,,0.00,WUHU216HW,2013-06-10 03:18:00,
2013-06-09 23:20:00,67.7,62.4,30.17,North,0,0.0,0.0,83,0.00,,,0.00,WUHU216HW,2013-06-10 03:20:00,
2013-06-09 23:21:00,67.5,62.2,30.17,North,0,0.0,0.0,83,0.00,,,0.00,WUHU216HW,2013-06-10 03:21:00,
2013-06-09 23:23:00,67.5,62.2,30.17,North,0,0.0,0.0,83,0.00,,,0.00,WUHU216HW,2013-06-10 03:23:00,
2013-06-09 23:26:00,67.5,62.2,30.17,North,0,0.0,0.0,83,0.00,,,0.00,WUHU216HW,2013-06-10 03:26:00,
2013-06-09 23:28:00,67.3,62.0,30.17,North,0,0.0,0.0,83,0.00,,,0.00,WUHU216HW,2013-06-10 03:28:00,
2013-06-09 23:29:00,67.3,62.0,30.17,North,0,0.0,0.0,83,0.00,,,0.00,WUHU216HW,2013-06-10 03:29:00,
2013-06-09 23:31:00,67.3,62.0,30.17,North,0,0.0,0.0,83,0.00,,,0.00,WUHU216HW,2013-06-10 03:31:00,
2013-06-09 23:34:00,67.3,62.0,30.17,North,0,0.0,0.0,83,0.00,,,0.00,WUHU216HW,2013-06-10 03:34:00,
2013-06-09 23:36:00,67.3,62.0,30.17,North,0,0.0,0.0,83,0.00,,,0.00,WUHU216HW,2013-06-10 03:36:00,
2013-06-09 23:37:00,67.3,62.0,30.17,North,0,0.0,0.0,83,0.00,,,0.00,WUHU216HW,2013-06-10 03:37:00,
2013-06-09 23:39:00,67.3,62.0,30.17,North,0,0.0,0.0,83,0.00,,,0.00,WUHU216HW,2013-06-10 03:39:00,
2013-06-09 23:41:00,67.3,62.0,30.17,North,0,0.0,0.0,83,0.00,,,0.00,WUHU216HW,2013-06-10 03:41:00,
2013-06-09 23:42:00,67.3,62.0,30.17,North,0,0.0,0.0,83,0.00,,,0.00,WUHU216HW,2013-06-10 03:42:00,
2013-06-09 23:44:00,67.3,62.0,30.17,North,0,0.0,0.0,83,0.00,,,0.00,WUHU216HW,2013-06-10 03:44:00,
2013-06-09 23:47:00,67.3,62.3,30.17,North,0,0.0,0.0,84,0.00,,,0.00,WUHU216HW,2013-06-10 03:47:00,
2013-06-09 23:48:00,67.3,62.3,30.17,North,0,0.0,0.0,84,0.00,,,0.00,WUHU216HW,2013-06-10 03:48:00,
2013-06-09 23:49:00,67.3,62.3,30.17,North,0,0.0,0.0,84,0.00,,,0.00,WUHU216HW,2013-06-10 03:49:00,
2013-06-09 23:53:00,67.3,62.3,30.16,North,0,0.0,0.0,84,0.00,,,0.00,WUHU216HW,2013-06-10 03:53:00,
2013-06-09 23:54:00,67.3,62.3,30.16,North,0,0.0,0.0,84,0.00,,,0.00,WUHU216HW,2013-06-10 03:54:00,
2013-06-09 23:58:00,67.1,62.1,30.16,North,0,0.0,0.0,84,0.00,,,0.00,WUHU216HW,2013-06-10 03:58:00,
2013-06-09 23:59:00,67.1,62.1,30.16,North,0,0.0,0.0,84,0.00,,,0.00,WUHU216HW,2013-06-10 03:59:00,